Wetterdaten: Dienstag, 16.05.2023
Datum Zeit Temp. Aussen Temp. o. S. Temp +5cm Feuchte Auss Luftdruck Regen Sonnenschein Regendauer Solar Windben Empfang
16.05.2023 00:00 12,2 C 11,7 C 8,3 C 90 % 1016,7 hPa 0,0 l/m 0 min 0 min 0 W/m 12,9 km/h (3 Bft) 100,00 %
16.05.2023 00:02 12,1 C 11,7 C 7,8 C 90 % 1016,7 hPa 0,0 l/m 0 min 0 min 0 W/m 25,7 km/h (4 Bft) 94,74 %
16.05.2023 00:04 12,1 C 11,7 C 7,8 C 90 % 1016,7 hPa 0,0 l/m 0 min 0 min 0 W/m 16,1 km/h (3 Bft) 97,92 %
16.05.2023 00:07 12,1 C 11,7 C 8,3 C 90 % 1016,8 hPa 0,0 l/m 0 min 0 min 0 W/m 22,5 km/h (4 Bft) 97,92 %
16.05.2023 00:08 12,1 C 11,7 C 7,8 C 90 % 1016,8 hPa 0,0 l/m 0 min 0 min 0 W/m 22,5 km/h (4 Bft) 96,81 %
16.05.2023 00:12 12,0 C 11,1 C 8,3 C 90 % 1016,8 hPa 0,0 l/m 0 min 0 min 0 W/m 19,3 km/h (3 Bft) 96,00 %
16.05.2023 00:14 12,0 C 11,1 C 8,3 C 91 % 1016,8 hPa 0,0 l/m 0 min 0 min 0 W/m 12,9 km/h (3 Bft) 100,00 %
16.05.2023 00:16 11,9 C 11,1 C 8,3 C 91 % 1016,8 hPa 0,0 l/m 0 min 2 min 0 W/m 16,1 km/h (3 Bft) 97,87 %
16.05.2023 00:18 11,9 C 11,1 C 7,8 C 91 % 1016,8 hPa 0,0 l/m 0 min 2 min 0 W/m 19,3 km/h (3 Bft) 97,87 %
16.05.2023 00:20 11,9 C 11,1 C 7,2 C 91 % 1016,8 hPa 0,0 l/m 0 min 2 min 0 W/m 9,7 km/h (2 Bft) 97,73 %
16.05.2023 00:22 11,9 C 11,1 C 7,2 C 91 % 1016,8 hPa 0,0 l/m 0 min 2 min 0 W/m 16,1 km/h (3 Bft) 97,87 %
16.05.2023 00:24 11,9 C 11,1 C 7,2 C 91 % 1016,9 hPa 0,0 l/m 0 min 2 min 0 W/m 19,3 km/h (3 Bft) 97,83 %
16.05.2023 00:26 11,8 C 10,6 C 7,2 C 91 % 1016,8 hPa 0,2 l/m 0 min 2 min 0 W/m 9,7 km/h (2 Bft) 97,87 %
16.05.2023 00:28 11,8 C 10,6 C 7,2 C 92 % 1016,9 hPa 0,0 l/m 0 min 2 min 0 W/m 12,9 km/h (3 Bft) 95,74 %
16.05.2023 00:30 11,8 C 10,6 C 7,2 C 92 % 1016,9 hPa 0,0 l/m 0 min 2 min 0 W/m 19,3 km/h (3 Bft) 95,74 %
16.05.2023 00:32 11,7 C 10,6 C 7,2 C 92 % 1016,8 hPa 0,0 l/m 0 min 2 min 0 W/m 12,9 km/h (3 Bft) 97,92 %
16.05.2023 00:34 11,7 C 10,6 C 7,2 C 92 % 1016,9 hPa 0,0 l/m 0 min 2 min 0 W/m 12,9 km/h (3 Bft) 97,96 %
16.05.2023 00:36 11,6 C 10,6 C 7,2 C 92 % 1016,9 hPa 0,0 l/m 0 min 2 min 0 W/m 16,1 km/h (3 Bft) 97,83 %
16.05.2023 00:38 11,6 C 10,6 C 7,2 C 92 % 1017,1 hPa 0,2 l/m 0 min 2 min 0 W/m 22,5 km/h (4 Bft) 93,62 %
16.05.2023 00:40 11,5 C 10,6 C 6,7 C 92 % 1016,9 hPa 0,0 l/m 0 min 2 min 0 W/m 12,9 km/h (3 Bft) 93,62 %
16.05.2023 00:42 11,4 C 10,6 C 7,2 C 93 % 1016,9 hPa 0,0 l/m 0 min 2 min 0 W/m 12,9 km/h (3 Bft) 91,67 %
16.05.2023 00:44 11,4 C 10,6 C 7,2 C 93 % 1016,9 hPa 0,0 l/m 0 min 2 min 0 W/m 12,9 km/h (3 Bft) 97,87 %
16.05.2023 00:46 11,4 C 10,6 C 7,2 C 93 % 1016,8 hPa 0,0 l/m 0 min 2 min 0 W/m 9,7 km/h (2 Bft) 95,74 %
16.05.2023 00:48 11,4 C 10,6 C 7,2 C 93 % 1016,9 hPa 0,0 l/m 0 min 2 min 0 W/m 6,4 km/h (2 Bft) 95,74 %
16.05.2023 00:50 11,3 C 10,6 C 6,7 C 93 % 1016,9 hPa 0,2 l/m 0 min 2 min 0 W/m 9,7 km/h (2 Bft) 93,62 %
16.05.2023 00:52 11,3 C 10,6 C 6,7 C 93 % 1016,9 hPa 0,0 l/m 0 min 2 min 0 W/m 12,9 km/h (3 Bft) 95,65 %
16.05.2023 00:54 11,3 C 10,6 C 6,7 C 93 % 1016,9 hPa 0,0 l/m 0 min 2 min 0 W/m 12,9 km/h (3 Bft) 95,74 %
16.05.2023 00:56 11,3 C 10,6 C 6,7 C 94 % 1016,9 hPa 0,2 l/m 0 min 2 min 0 W/m 16,1 km/h (3 Bft) 91,49 %
16.05.2023 00:58 11,2 C 10,6 C 6,7 C 94 % 1016,9 hPa 0,0 l/m 0 min 2 min 0 W/m 12,9 km/h (3 Bft) 93,62 %
16.05.2023 01:00 11,2 C 10,6 C 6,7 C 94 % 1017,0 hPa 0,0 l/m 0 min 2 min 0 W/m 19,3 km/h (3 Bft) 95,74 %
16.05.2023 01:02 11,2 C 10,0 C 6,7 C 94 % 1017,0 hPa 0,0 l/m 0 min 2 min 0 W/m 16,1 km/h (3 Bft) 93,62 %
16.05.2023 01:04 11,1 C 10,6 C 6,7 C 94 % 1017,0 hPa 0,0 l/m 0 min 2 min 0 W/m 16,1 km/h (3 Bft) 95,83 %
16.05.2023 01:06 11,1 C 10,6 C 6,7 C 94 % 1016,9 hPa 0,2 l/m 0 min 2 min 0 W/m 9,7 km/h (2 Bft) 97,87 %
16.05.2023 01:08 11,1 C 10,6 C 6,7 C 94 % 1017,0 hPa 0,0 l/m 0 min 2 min 0 W/m 12,9 km/h (3 Bft) 97,87 %
16.05.2023 01:10 11,1 C 10,6 C 6,7 C 94 % 1017,0 hPa 0,0 l/m 0 min 2 min 0 W/m 16,1 km/h (3 Bft) 95,74 %
16.05.2023 01:12 11,1 C 10,0 C 6,7 C 94 % 1017,0 hPa 0,2 l/m 0 min 2 min 0 W/m 19,3 km/h (3 Bft) 93,62 %
16.05.2023 01:14 11,1 C 10,6 C 6,7 C 94 % 1017,0 hPa 0,0 l/m 0 min 2 min 0 W/m 9,7 km/h (2 Bft) 97,87 %
16.05.2023 01:16 11,1 C 10,0 C 6,7 C 95 % 1017,0 hPa 0,0 l/m 0 min 2 min 0 W/m 19,3 km/h (3 Bft) 97,87 %
16.05.2023 01:18 11,1 C 10,0 C 6,7 C 95 % 1017,0 hPa 0,2 l/m 0 min 2 min 0 W/m 19,3 km/h (3 Bft) 97,83 %
16.05.2023 01:20 11,1 C 10,0 C 6,7 C 95 % 1017,0 hPa 0,0 l/m 0 min 2 min 0 W/m 22,5 km/h (4 Bft) 97,87 %
16.05.2023 01:22 11,1 C 10,0 C 6,7 C 95 % 1017,1 hPa 0,2 l/m 0 min 2 min 0 W/m 19,3 km/h (3 Bft) 97,87 %
16.05.2023 01:24 11,1 C 10,0 C 6,7 C 95 % 1017,1 hPa 0,0 l/m 0 min 2 min 0 W/m 22,5 km/h (4 Bft) 94,74 %
16.05.2023 01:26 11,0 C 10,0 C 6,7 C 95 % 1017,0 hPa 0,0 l/m 0 min 2 min 0 W/m 29,0 km/h (5 Bft) 97,87 %
16.05.2023 01:28 10,9 C 10,0 C 6,1 C 95 % 1017,1 hPa 0,0 l/m 0 min 2 min 0 W/m 16,1 km/h (3 Bft) 97,87 %
16.05.2023 01:30 10,9 C 10,0 C 6,1 C 95 % 1017,1 hPa 0,2 l/m 0 min 2 min 0 W/m 19,3 km/h (3 Bft) 95,74 %
16.05.2023 01:32 10,9 C 10,0 C 6,1 C 95 % 1017,1 hPa 0,0 l/m 0 min 2 min 0 W/m 9,7 km/h (2 Bft) 95,74 %
16.05.2023 01:34 10,8 C 10,0 C 6,1 C 95 % 1017,1 hPa 0,2 l/m 0 min 2 min 0 W/m 16,1 km/h (3 Bft) 97,83 %
16.05.2023 01:36 10,8 C 9,4 C 6,1 C 95 % 1017,2 hPa 0,0 l/m 0 min 2 min 0 W/m 22,5 km/h (4 Bft) 98,15 %
16.05.2023 01:38 10,7 C 9,4 C 5,6 C 95 % 1017,2 hPa 0,0 l/m 0 min 2 min 0 W/m 25,7 km/h (4 Bft) 97,87 %
16.05.2023 01:40 10,7 C 9,4 C 6,1 C 95 % 1017,2 hPa 0,0 l/m 0 min 2 min 0 W/m 22,5 km/h (4 Bft) 97,87 %
16.05.2023 01:42 10,6 C 9,4 C 6,1 C 95 % 1017,2 hPa 0,2 l/m 0 min 2 min 0 W/m 16,1 km/h (3 Bft) 100,00 %
16.05.2023 01:44 10,6 C 9,4 C 5,6 C 95 % 1017,1 hPa 0,0 l/m 0 min 2 min 0 W/m 19,3 km/h (3 Bft) 98,00 %
16.05.2023 01:46 10,6 C 9,4 C 5,6 C 95 % 1017,1 hPa 0,0 l/m 0 min 2 min 0 W/m 6,4 km/h (2 Bft) 100,00 %
16.05.2023 01:48 10,6 C 9,4 C 6,1 C 95 % 1017,2 hPa 0,0 l/m 0 min 2 min 0 W/m 6,4 km/h (2 Bft) 100,00 %
16.05.2023 01:50 10,6 C 9,4 C 5,6 C 95 % 1017,1 hPa 0,2 l/m 0 min 2 min 0 W/m 16,1 km/h (3 Bft) 100,00 %
16.05.2023 01:52 10,5 C 9,4 C 6,1 C 95 % 1017,2 hPa 0,0 l/m 0 min 2 min 0 W/m 25,7 km/h (4 Bft) 100,00 %
16.05.2023 01:54 10,4 C 9,4 C 5,6 C 95 % 1017,2 hPa 0,0 l/m 0 min 2 min 0 W/m 19,3 km/h (3 Bft) 100,00 %
16.05.2023 01:56 10,4 C 9,4 C 6,1 C 96 % 1017,2 hPa 0,0 l/m 0 min 2 min 0 W/m 9,7 km/h (2 Bft) 100,00 %
16.05.2023 01:58 10,4 C 9,4 C 6,1 C 96 % 1017,2 hPa 0,0 l/m 0 min 2 min 0 W/m 12,9 km/h (3 Bft) 100,00 %
16.05.2023 02:00 10,4 C 9,4 C 6,1 C 96 % 1017,3 hPa 0,2 l/m 0 min 2 min 0 W/m 19,3 km/h (3 Bft) 100,00 %
16.05.2023 02:02 10,4 C 9,4 C 6,1 C 96 % 1017,3 hPa 0,0 l/m 0 min 2 min 0 W/m 12,9 km/h (3 Bft) 100,00 %
16.05.2023 02:04 10,4 C 9,4 C 6,1 C 96 % 1017,4 hPa 0,0 l/m 0 min 2 min 0 W/m 12,9 km/h (3 Bft) 100,00 %
16.05.2023 02:06 10,3 C 8,9 C 5,6 C 96 % 1017,4 hPa 0,0 l/m 0 min 2 min 0 W/m 48,3 km/h (6 Bft) 98,31 %
16.05.2023 02:08 10,3 C 8,9 C 5,6 C 96 % 1017,5 hPa 0,0 l/m 0 min 2 min 0 W/m 19,3 km/h (3 Bft) 100,00 %
16.05.2023 02:10 10,2 C 8,9 C 5,6 C 96 % 1017,5 hPa 0,0 l/m 0 min 2 min 0 W/m 22,5 km/h (4 Bft) 100,00 %
16.05.2023 02:17 9,9 C 8,9 C 5,0 C 96 % 1017,5 hPa 0,2 l/m 0 min 5 min 0 W/m 22,5 km/h (4 Bft) 98,51 %
16.05.2023 02:18 9,9 C 8,9 C 5,0 C 96 % 1017,5 hPa 0,0 l/m 0 min 1 min 0 W/m 9,7 km/h (2 Bft) 100,00 %
16.05.2023 02:20 9,8 C 8,9 C 5,6 C 96 % 1017,5 hPa 0,2 l/m 0 min 2 min 0 W/m 16,1 km/h (3 Bft) 97,87 %
16.05.2023 02:22 9,8 C 8,9 C 5,6 C 96 % 1017,5 hPa 0,0 l/m 0 min 2 min 0 W/m 22,5 km/h (4 Bft) 97,87 %
16.05.2023 02:24 9,8 C 8,9 C 5,0 C 96 % 1017,6 hPa 0,0 l/m 0 min 2 min 0 W/m 22,5 km/h (4 Bft) 97,83 %
16.05.2023 02:26 9,7 C 8,9 C 5,0 C 96 % 1017,6 hPa 0,0 l/m 0 min 2 min 0 W/m 16,1 km/h (3 Bft) 95,74 %
16.05.2023 02:28 9,7 C 8,9 C 5,0 C 96 % 1017,6 hPa 0,0 l/m 0 min 0 min 0 W/m 19,3 km/h (3 Bft) 98,00 %
16.05.2023 02:30 9,7 C 8,9 C 5,0 C 96 % 1017,6 hPa 0,0 l/m 0 min 2 min 0 W/m 9,7 km/h (2 Bft) 97,62 %
16.05.2023 02:32 9,7 C 8,9 C 5,0 C 96 % 1017,6 hPa 0,0 l/m 0 min 2 min 0 W/m 12,9 km/h (3 Bft) 74,47 %
16.05.2023 02:34 9,6 C 8,3 C 5,0 C 96 % 1017,5 hPa 0,0 l/m 0 min 2 min 0 W/m 19,3 km/h (3 Bft) 62,96 %
16.05.2023 02:36 9,6 C 8,3 C 5,0 C 96 % 1017,6 hPa 0,0 l/m 0 min 2 min 0 W/m 19,3 km/h (3 Bft) 95,74 %
16.05.2023 02:38 9,6 C 8,3 C 5,0 C 96 % 1017,6 hPa 0,2 l/m 0 min 2 min 0 W/m 25,7 km/h (4 Bft) 95,74 %
16.05.2023 02:40 9,6 C 8,3 C 5,0 C 96 % 1017,6 hPa 0,0 l/m 0 min 2 min 0 W/m 25,7 km/h (4 Bft) 97,87 %
16.05.2023 02:42 9,6 C 8,9 C 5,0 C 96 % 1017,6 hPa 0,0 l/m 0 min 2 min 0 W/m 9,7 km/h (2 Bft) 97,83 %
16.05.2023 02:44 9,6 C 8,9 C 5,0 C 96 % 1017,6 hPa 0,0 l/m 0 min 2 min 0 W/m 19,3 km/h (3 Bft) 97,87 %
16.05.2023 02:46 9,6 C 8,9 C 5,6 C 96 % 1017,6 hPa 0,0 l/m 0 min 2 min 0 W/m 19,3 km/h (3 Bft) 97,87 %
16.05.2023 02:48 9,6 C 8,9 C 5,0 C 96 % 1017,6 hPa 0,0 l/m 0 min 2 min 0 W/m 16,1 km/h (3 Bft) 97,87 %
16.05.2023 02:50 9,6 C 8,9 C 5,6 C 96 % 1017,6 hPa 0,0 l/m 0 min 2 min 0 W/m 16,1 km/h (3 Bft) 97,87 %
16.05.2023 02:52 9,6 C 8,3 C 5,0 C 96 % 1017,5 hPa 0,0 l/m 0 min 2 min 0 W/m 22,5 km/h (4 Bft) 100,00 %
16.05.2023 02:54 9,6 C 8,9 C 5,6 C 96 % 1017,6 hPa 0,2 l/m 0 min 2 min 0 W/m 16,1 km/h (3 Bft) 100,00 %
16.05.2023 02:56 9,6 C 8,3 C 5,0 C 96 % 1017,7 hPa 0,0 l/m 0 min 2 min 0 W/m 25,7 km/h (4 Bft) 100,00 %
16.05.2023 02:58 9,6 C 8,3 C 5,0 C 96 % 1017,6 hPa 0,0 l/m 0 min 2 min 0 W/m 16,1 km/h (3 Bft) 100,00 %
16.05.2023 03:00 9,6 C 8,3 C 5,0 C 96 % 1017,6 hPa 0,0 l/m 0 min 2 min 0 W/m 22,5 km/h (4 Bft) 100,00 %
16.05.2023 03:02 9,5 C 8,3 C 5,0 C 96 % 1017,6 hPa 0,0 l/m 0 min 2 min 0 W/m 16,1 km/h (3 Bft) 100,00 %
16.05.2023 03:04 9,5 C 8,3 C 5,0 C 96 % 1017,7 hPa 0,0 l/m 0 min 2 min 0 W/m 22,5 km/h (4 Bft) 100,00 %
16.05.2023 03:06 9,4 C 8,3 C 5,0 C 96 % 1017,7 hPa 0,0 l/m 0 min 2 min 0 W/m 19,3 km/h (3 Bft) 98,39 %
16.05.2023 03:08 9,4 C 8,3 C 5,0 C 96 % 1017,7 hPa 0,0 l/m 0 min 0 min 0 W/m 16,1 km/h (3 Bft) 100,00 %
16.05.2023 03:10 9,4 C 8,3 C 5,0 C 96 % 1017,7 hPa 0,0 l/m 0 min 2 min 0 W/m 22,5 km/h (4 Bft) 100,00 %
16.05.2023 03:12 9,3 C 8,3 C 5,0 C 96 % 1017,7 hPa 0,0 l/m 0 min 2 min 0 W/m 12,9 km/h (3 Bft) 100,00 %
16.05.2023 03:14 9,3 C 8,3 C 5,0 C 97 % 1017,7 hPa 0,0 l/m 0 min 2 min 0 W/m 9,7 km/h (2 Bft) 100,00 %
16.05.2023 03:16 9,3 C 8,3 C 5,0 C 97 % 1017,8 hPa 0,0 l/m 0 min 0 min 0 W/m 9,7 km/h (2 Bft) 95,74 %
16.05.2023 03:18 9,3 C 8,3 C 5,0 C 96 % 1017,8 hPa 0,0 l/m 0 min 0 min 0 W/m 19,3 km/h (3 Bft) 97,83 %
16.05.2023 03:20 9,3 C 8,3 C 5,0 C 96 % 1017,8 hPa 0,0 l/m 0 min 0 min 0 W/m 16,1 km/h (3 Bft) 97,87 %
16.05.2023 03:22 9,3 C 8,3 C 5,0 C 96 % 1017,8 hPa 0,0 l/m 0 min 0 min 0 W/m 25,7 km/h (4 Bft) 93,62 %
16.05.2023 03:24 9,3 C 8,3 C 5,0 C 96 % 1017,8 hPa 0,0 l/m 0 min 0 min 0 W/m 6,4 km/h (2 Bft) 97,87 %
16.05.2023 03:26 9,3 C 8,3 C 5,0 C 96 % 1017,8 hPa 0,0 l/m 0 min 0 min 0 W/m 6,4 km/h (2 Bft) 97,87 %
16.05.2023 03:28 9,3 C 8,3 C 5,0 C 96 % 1017,9 hPa 0,0 l/m 0 min 0 min 0 W/m 16,1 km/h (3 Bft) 95,74 %
16.05.2023 03:30 9,2 C 8,3 C 5,0 C 96 % 1017,9 hPa 0,0 l/m 0 min 0 min 0 W/m 16,1 km/h (3 Bft) 97,87 %
16.05.2023 03:32 9,2 C 8,3 C 5,0 C 96 % 1017,9 hPa 0,0 l/m 0 min 0 min 0 W/m 16,1 km/h (3 Bft) 97,83 %
16.05.2023 03:34 9,2 C 8,3 C 5,0 C 97 % 1017,9 hPa 0,0 l/m 0 min 0 min 0 W/m 9,7 km/h (2 Bft) 97,87 %
16.05.2023 03:36 9,2 C 8,3 C 5,0 C 97 % 1017,9 hPa 0,0 l/m 0 min 0 min 0 W/m 12,9 km/h (3 Bft) 95,74 %
16.05.2023 03:38 9,2 C 8,3 C 5,0 C 97 % 1017,9 hPa 0,0 l/m 0 min 0 min 0 W/m 12,9 km/h (3 Bft) 93,62 %
16.05.2023 03:40 9,1 C 8,3 C 4,4 C 97 % 1018,0 hPa 0,0 l/m 0 min 0 min 0 W/m 19,3 km/h (3 Bft) 93,62 %
16.05.2023 03:42 9,1 C 8,3 C 4,4 C 97 % 1017,9 hPa 0,0 l/m 0 min 0 min 0 W/m 22,5 km/h (4 Bft) 95,74 %
16.05.2023 03:44 9,1 C 8,3 C 4,4 C 97 % 1018,0 hPa 0,0 l/m 0 min 0 min 0 W/m 19,3 km/h (3 Bft) 95,65 %
16.05.2023 03:46 9,0 C 7,8 C 4,4 C 96 % 1018,0 hPa 0,0 l/m 0 min 0 min 0 W/m 19,3 km/h (3 Bft) 95,74 %
16.05.2023 03:48 8,9 C 7,8 C 4,4 C 96 % 1018,0 hPa 0,0 l/m 0 min 0 min 0 W/m 22,5 km/h (4 Bft) 95,92 %
16.05.2023 03:50 8,9 C 7,8 C 4,4 C 96 % 1018,0 hPa 0,0 l/m 0 min 0 min 0 W/m 22,5 km/h (4 Bft) 95,74 %
16.05.2023 03:52 8,9 C 7,8 C 4,4 C 96 % 1018,1 hPa 0,0 l/m 0 min 0 min 0 W/m 12,9 km/h (3 Bft) 95,74 %
16.05.2023 03:54 8,8 C 7,8 C 4,4 C 96 % 1018,2 hPa 0,0 l/m 0 min 0 min 0 W/m 19,3 km/h (3 Bft) 93,62 %
16.05.2023 03:56 8,8 C 7,8 C 4,4 C 96 % 1018,1 hPa 0,0 l/m 0 min 0 min 0 W/m 22,5 km/h (4 Bft) 93,48 %
16.05.2023 03:58 8,9 C 8,3 C 4,4 C 96 % 1018,2 hPa 0,0 l/m 0 min 0 min 0 W/m 12,9 km/h (3 Bft) 93,62 %
16.05.2023 04:00 8,9 C 8,3 C 4,4 C 96 % 1018,2 hPa 0,0 l/m 0 min 0 min 0 W/m 12,9 km/h (3 Bft) 93,62 %
16.05.2023 04:02 8,9 C 8,3 C 4,4 C 96 % 1018,2 hPa 0,0 l/m 0 min 0 min 0 W/m 9,7 km/h (2 Bft) 93,62 %
16.05.2023 04:04 8,9 C 8,3 C 4,4 C 96 % 1018,2 hPa 0,0 l/m 0 min 0 min 0 W/m 16,1 km/h (3 Bft) 93,75 %
16.05.2023 04:06 8,9 C 8,3 C 5,0 C 96 % 1018,2 hPa 0,0 l/m 0 min 0 min 0 W/m 12,9 km/h (3 Bft) 94,83 %
16.05.2023 04:08 9,0 C 8,3 C 4,4 C 96 % 1018,3 hPa 0,0 l/m 0 min 0 min 0 W/m 16,1 km/h (3 Bft) 94,44 %
16.05.2023 04:10 8,9 C 8,3 C 4,4 C 96 % 1018,3 hPa 0,0 l/m 0 min 0 min 0 W/m 12,9 km/h (3 Bft) 93,48 %
16.05.2023 04:12 8,9 C 7,8 C 4,4 C 96 % 1018,3 hPa 0,0 l/m 0 min 0 min 0 W/m 19,3 km/h (3 Bft) 91,49 %
16.05.2023 04:14 8,9 C 8,3 C 4,4 C 96 % 1018,3 hPa 0,0 l/m 0 min 0 min 0 W/m 9,7 km/h (2 Bft) 93,62 %
16.05.2023 04:16 8,9 C 8,3 C 4,4 C 96 % 1018,4 hPa 0,0 l/m 0 min 0 min 0 W/m 16,1 km/h (3 Bft) 91,49 %
16.05.2023 04:18 8,9 C 8,3 C 4,4 C 96 % 1018,4 hPa 0,0 l/m 0 min 0 min 0 W/m 12,9 km/h (3 Bft) 93,62 %
16.05.2023 04:20 8,9 C 8,3 C 4,4 C 96 % 1018,4 hPa 0,0 l/m 0 min 0 min 0 W/m 19,3 km/h (3 Bft) 95,74 %
16.05.2023 04:22 8,9 C 8,3 C 4,4 C 96 % 1018,4 hPa 0,0 l/m 0 min 0 min 0 W/m 16,1 km/h (3 Bft) 95,65 %
16.05.2023 04:24 8,9 C 7,8 C 4,4 C 96 % 1018,4 hPa 0,0 l/m 0 min 0 min 0 W/m 22,5 km/h (4 Bft) 95,74 %
16.05.2023 04:26 8,9 C 7,8 C 4,4 C 96 % 1018,4 hPa 0,0 l/m 0 min 0 min 0 W/m 19,3 km/h (3 Bft) 97,87 %
16.05.2023 04:28 8,9 C 7,8 C 4,4 C 96 % 1018,5 hPa 0,0 l/m 0 min 0 min 0 W/m 16,1 km/h (3 Bft) 97,87 %
16.05.2023 04:30 8,9 C 7,8 C 4,4 C 96 % 1018,4 hPa 0,0 l/m 0 min 0 min 0 W/m 16,1 km/h (3 Bft) 97,87 %
16.05.2023 04:32 8,8 C 7,8 C 4,4 C 96 % 1018,5 hPa 0,0 l/m 0 min 0 min 0 W/m 16,1 km/h (3 Bft) 97,87 %
16.05.2023 04:34 8,8 C 8,3 C 4,4 C 96 % 1018,5 hPa 0,0 l/m 0 min 0 min 0 W/m 12,9 km/h (3 Bft) 97,62 %
16.05.2023 04:36 8,8 C 8,3 C 4,4 C 96 % 1018,4 hPa 0,0 l/m 0 min 0 min 0 W/m 16,1 km/h (3 Bft) 100,00 %
16.05.2023 04:38 8,8 C 8,3 C 4,4 C 96 % 1018,5 hPa 0,0 l/m 0 min 0 min 0 W/m 12,9 km/h (3 Bft) 95,74 %
16.05.2023 04:40 8,8 C 8,3 C 4,4 C 96 % 1018,5 hPa 0,0 l/m 0 min 0 min 0 W/m 9,7 km/h (2 Bft) 100,00 %
16.05.2023 04:42 8,8 C 8,3 C 4,4 C 96 % 1018,5 hPa 0,0 l/m 0 min 0 min 0 W/m 12,9 km/h (3 Bft) 97,87 %
16.05.2023 04:44 8,8 C 8,3 C 4,4 C 96 % 1018,5 hPa 0,0 l/m 0 min 0 min 0 W/m 25,7 km/h (4 Bft) 100,00 %
16.05.2023 04:46 8,8 C 7,8 C 4,4 C 96 % 1018,6 hPa 0,0 l/m 0 min 0 min 0 W/m 9,7 km/h (2 Bft) 100,00 %
16.05.2023 04:48 8,8 C 7,8 C 4,4 C 96 % 1018,6 hPa 0,0 l/m 0 min 0 min 0 W/m 19,3 km/h (3 Bft) 100,00 %
16.05.2023 04:50 8,7 C 7,8 C 4,4 C 96 % 1018,7 hPa 0,0 l/m 0 min 0 min 0 W/m 6,4 km/h (2 Bft) 100,00 %
16.05.2023 04:52 8,7 C 7,8 C 4,4 C 96 % 1018,7 hPa 0,0 l/m 0 min 0 min 0 W/m 22,5 km/h (4 Bft) 100,00 %
16.05.2023 04:54 8,7 C 7,8 C 3,9 C 96 % 1018,7 hPa 0,0 l/m 0 min 0 min 0 W/m 12,9 km/h (3 Bft) 100,00 %
16.05.2023 04:56 8,6 C 7,8 C 3,9 C 96 % 1018,8 hPa 0,0 l/m 0 min 0 min 0 W/m 19,3 km/h (3 Bft) 100,00 %
16.05.2023 04:58 8,6 C 7,8 C 3,9 C 96 % 1018,8 hPa 0,0 l/m 0 min 0 min 0 W/m 16,1 km/h (3 Bft) 100,00 %
16.05.2023 05:00 8,6 C 7,8 C 3,9 C 96 % 1018,9 hPa 0,0 l/m 0 min 0 min 0 W/m 19,3 km/h (3 Bft) 100,00 %
16.05.2023 05:02 8,6 C 7,8 C 3,9 C 96 % 1018,9 hPa 0,0 l/m 0 min 0 min 0 W/m 19,3 km/h (3 Bft) 100,00 %
16.05.2023 05:04 8,6 C 7,8 C 3,9 C 96 % 1018,9 hPa 0,0 l/m 0 min 0 min 0 W/m 19,3 km/h (3 Bft) 100,00 %
16.05.2023 05:09 8,5 C 7,8 C 3,9 C 96 % 1018,9 hPa 0,0 l/m 0 min 0 min 0 W/m 12,9 km/h (3 Bft) 100,00 %
16.05.2023 05:12 8,4 C 7,8 C 3,9 C 95 % 1019,0 hPa 0,0 l/m 0 min 0 min 0 W/m 22,5 km/h (4 Bft) 98,57 %
16.05.2023 05:14 8,4 C 7,2 C 3,9 C 95 % 1019,0 hPa 0,0 l/m 0 min 0 min 0 W/m 22,5 km/h (4 Bft) 100,00 %
16.05.2023 05:16 8,3 C 7,2 C 3,9 C 95 % 1019,0 hPa 0,0 l/m 0 min 0 min 0 W/m 19,3 km/h (3 Bft) 95,74 %
16.05.2023 05:18 8,3 C 7,2 C 3,9 C 95 % 1019,0 hPa 0,0 l/m 0 min 0 min 0 W/m 19,3 km/h (3 Bft) 95,74 %
16.05.2023 05:20 8,2 C 7,2 C 3,9 C 95 % 1019,1 hPa 0,0 l/m 0 min 0 min 0 W/m 22,5 km/h (4 Bft) 100,00 %
16.05.2023 05:22 8,2 C 7,2 C 3,9 C 95 % 1019,1 hPa 0,0 l/m 0 min 0 min 0 W/m 19,3 km/h (3 Bft) 100,00 %
16.05.2023 05:24 8,2 C 7,2 C 3,9 C 95 % 1019,1 hPa 0,0 l/m 0 min 0 min 0 W/m 19,3 km/h (3 Bft) 100,00 %
16.05.2023 05:26 8,1 C 7,2 C 3,9 C 95 % 1019,1 hPa 0,0 l/m 0 min 0 min 0 W/m 9,7 km/h (2 Bft) 100,00 %
16.05.2023 05:28 8,1 C 7,2 C 3,9 C 95 % 1019,1 hPa 0,0 l/m 0 min 0 min 0 W/m 22,5 km/h (4 Bft) 100,00 %
16.05.2023 05:30 8,1 C 7,2 C 3,9 C 95 % 1019,1 hPa 0,0 l/m 0 min 0 min 0 W/m 12,9 km/h (3 Bft) 100,00 %
16.05.2023 05:32 8,1 C 7,2 C 3,3 C 95 % 1019,1 hPa 0,0 l/m 0 min 0 min 0 W/m 12,9 km/h (3 Bft) 100,00 %
16.05.2023 05:34 8,0 C 7,2 C 3,9 C 95 % 1019,1 hPa 0,0 l/m 0 min 0 min 0 W/m 9,7 km/h (2 Bft) 100,00 %
16.05.2023 05:36 8,0 C 7,2 C 3,3 C 95 % 1019,1 hPa 0,0 l/m 0 min 0 min 0 W/m 12,9 km/h (3 Bft) 100,00 %
16.05.2023 05:38 7,9 C 6,7 C 3,3 C 95 % 1019,1 hPa 0,0 l/m 0 min 0 min 0 W/m 12,9 km/h (3 Bft) 100,00 %
16.05.2023 05:40 7,9 C 6,7 C 3,3 C 95 % 1019,2 hPa 0,0 l/m 0 min 0 min 0 W/m 9,7 km/h (2 Bft) 100,00 %
16.05.2023 05:42 7,9 C 6,7 C 3,3 C 95 % 1019,2 hPa 0,0 l/m 0 min 0 min 0 W/m 9,7 km/h (2 Bft) 97,83 %
16.05.2023 05:44 7,9 C 6,7 C 3,3 C 95 % 1019,2 hPa 0,0 l/m 0 min 0 min 0 W/m 19,3 km/h (3 Bft) 100,00 %
16.05.2023 05:46 7,8 C 6,7 C 3,3 C 94 % 1019,3 hPa 0,0 l/m 0 min 0 min 0 W/m 9,7 km/h (2 Bft) 97,87 %
16.05.2023 05:48 7,8 C 6,7 C 3,3 C 94 % 1019,3 hPa 0,0 l/m 0 min 0 min 0 W/m 9,7 km/h (2 Bft) 97,87 %
16.05.2023 05:50 7,8 C 6,7 C 3,3 C 94 % 1019,3 hPa 0,0 l/m 0 min 0 min 1 W/m 12,9 km/h (3 Bft) 97,87 %
16.05.2023 05:52 7,7 C 6,7 C 3,3 C 94 % 1019,3 hPa 0,0 l/m 0 min 0 min 5 W/m 6,4 km/h (2 Bft) 97,87 %
16.05.2023 05:54 7,7 C 6,7 C 3,3 C 94 % 1019,3 hPa 0,0 l/m 0 min 0 min 5 W/m 12,9 km/h (3 Bft) 93,62 %
16.05.2023 05:56 7,7 C 6,7 C 3,3 C 94 % 1019,4 hPa 0,0 l/m 0 min 0 min 6 W/m 6,4 km/h (2 Bft) 97,83 %
16.05.2023 05:58 7,7 C 6,7 C 3,3 C 95 % 1019,4 hPa 0,0 l/m 0 min 0 min 7 W/m 9,7 km/h (2 Bft) 97,87 %
16.05.2023 06:00 7,6 C 6,7 C 3,3 C 95 % 1019,5 hPa 0,0 l/m 0 min 0 min 7 W/m 12,9 km/h (3 Bft) 93,62 %
16.05.2023 06:02 7,6 C 6,7 C 3,3 C 95 % 1019,4 hPa 0,0 l/m 0 min 0 min 8 W/m 6,4 km/h (2 Bft) 97,87 %
16.05.2023 06:04 7,6 C 6,7 C 3,3 C 95 % 1019,5 hPa 0,0 l/m 0 min 0 min 9 W/m 9,7 km/h (2 Bft) 95,83 %
16.05.2023 06:07 7,6 C 6,7 C 3,3 C 95 % 1019,5 hPa 0,0 l/m 0 min 0 min 11 W/m 6,4 km/h (2 Bft) 95,83 %
16.05.2023 06:08 7,6 C 6,7 C 3,3 C 95 % 1019,5 hPa 0,0 l/m 0 min 0 min 10 W/m 9,7 km/h (2 Bft) 96,04 %
16.05.2023 06:10 7,6 C 6,7 C 3,3 C 95 % 1019,5 hPa 0,0 l/m 0 min 0 min 11 W/m 9,7 km/h (2 Bft) 95,74 %
16.05.2023 06:12 7,5 C 6,7 C 3,3 C 95 % 1019,5 hPa 0,0 l/m 0 min 0 min 11 W/m 9,7 km/h (2 Bft) 93,62 %
16.05.2023 06:14 7,5 C 6,7 C 3,3 C 94 % 1019,4 hPa 0,0 l/m 0 min 0 min 12 W/m 6,4 km/h (2 Bft) 97,87 %
16.05.2023 06:16 7,5 C 6,7 C 3,3 C 94 % 1019,5 hPa 0,0 l/m 0 min 0 min 12 W/m 16,1 km/h (3 Bft) 95,74 %
16.05.2023 06:18 7,4 C 6,7 C 3,3 C 94 % 1019,6 hPa 0,0 l/m 0 min 0 min 14 W/m 9,7 km/h (2 Bft) 97,87 %
16.05.2023 06:20 7,5 C 6,7 C 3,3 C 94 % 1019,6 hPa 0,0 l/m 0 min 0 min 14 W/m 9,7 km/h (2 Bft) 97,87 %
16.05.2023 06:22 7,4 C 6,7 C 3,3 C 94 % 1019,6 hPa 0,0 l/m 0 min 0 min 15 W/m 9,7 km/h (2 Bft) 97,83 %
16.05.2023 06:24 7,4 C 6,7 C 3,3 C 94 % 1019,7 hPa 0,0 l/m 0 min 0 min 16 W/m 9,7 km/h (2 Bft) 97,87 %
16.05.2023 06:26 7,4 C 6,7 C 3,3 C 94 % 1019,7 hPa 0,0 l/m 0 min 0 min 16 W/m 6,4 km/h (2 Bft) 97,87 %
16.05.2023 06:28 7,4 C 6,7 C 3,3 C 94 % 1019,7 hPa 0,0 l/m 0 min 0 min 17 W/m 12,9 km/h (3 Bft) 95,74 %
16.05.2023 06:30 7,4 C 6,7 C 3,3 C 94 % 1019,7 hPa 0,0 l/m 0 min 0 min 18 W/m 6,4 km/h (2 Bft) 97,87 %
16.05.2023 06:32 7,4 C 6,7 C 3,3 C 94 % 1019,7 hPa 0,0 l/m 0 min 0 min 19 W/m 9,7 km/h (2 Bft) 97,87 %
16.05.2023 06:34 7,4 C 6,7 C 3,3 C 94 % 1019,8 hPa 0,0 l/m 0 min 0 min 19 W/m 16,1 km/h (3 Bft) 97,83 %
16.05.2023 06:36 7,4 C 6,7 C 3,3 C 94 % 1019,8 hPa 0,0 l/m 0 min 0 min 19 W/m 12,9 km/h (3 Bft) 97,87 %
16.05.2023 06:38 7,4 C 6,7 C 3,3 C 94 % 1019,8 hPa 0,0 l/m 0 min 0 min 20 W/m 3,2 km/h (1 Bft) 97,87 %
16.05.2023 06:40 7,4 C 6,7 C 3,3 C 94 % 1019,9 hPa 0,0 l/m 0 min 0 min 21 W/m 3,2 km/h (1 Bft) 95,74 %
16.05.2023 06:42 7,4 C 6,7 C 3,3 C 94 % 1019,9 hPa 0,0 l/m 0 min 0 min 21 W/m 12,9 km/h (3 Bft) 91,49 %
16.05.2023 06:44 7,4 C 6,7 C 3,3 C 94 % 1019,9 hPa 0,0 l/m 0 min 0 min 21 W/m 12,9 km/h (3 Bft) 97,87 %
16.05.2023 06:46 7,4 C 6,7 C 3,3 C 94 % 1020,0 hPa 0,0 l/m 0 min 0 min 21 W/m 9,7 km/h (2 Bft) 97,87 %
16.05.2023 06:48 7,4 C 6,7 C 3,3 C 94 % 1020,0 hPa 0,0 l/m 0 min 0 min 23 W/m 6,4 km/h (2 Bft) 97,83 %
16.05.2023 06:50 7,4 C 6,7 C 3,3 C 94 % 1020,0 hPa 0,0 l/m 0 min 0 min 23 W/m 12,9 km/h (3 Bft) 97,87 %
16.05.2023 06:52 7,4 C 6,7 C 3,3 C 94 % 1020,0 hPa 0,0 l/m 0 min 0 min 25 W/m 12,9 km/h (3 Bft) 97,87 %
16.05.2023 06:54 7,4 C 6,7 C 3,3 C 94 % 1020,0 hPa 0,0 l/m 0 min 0 min 26 W/m 9,7 km/h (2 Bft) 100,00 %
16.05.2023 06:56 7,4 C 6,7 C 3,3 C 94 % 1020,1 hPa 0,0 l/m 0 min 0 min 26 W/m 6,4 km/h (2 Bft) 95,74 %
16.05.2023 06:58 7,4 C 6,7 C 3,3 C 94 % 1020,1 hPa 0,0 l/m 0 min 0 min 26 W/m 3,2 km/h (1 Bft) 97,87 %
16.05.2023 07:00 7,4 C 6,7 C 3,3 C 94 % 1020,1 hPa 0,0 l/m 0 min 0 min 26 W/m 9,7 km/h (2 Bft) 97,87 %
16.05.2023 07:02 7,4 C 6,7 C 3,3 C 94 % 1020,0 hPa 0,0 l/m 0 min 0 min 28 W/m 9,7 km/h (2 Bft) 95,65 %
16.05.2023 07:04 7,4 C 6,7 C 3,3 C 94 % 1020,1 hPa 0,0 l/m 0 min 0 min 28 W/m 16,1 km/h (3 Bft) 93,62 %
16.05.2023 07:06 7,4 C 6,7 C 3,3 C 94 % 1020,1 hPa 0,0 l/m 0 min 0 min 30 W/m 9,7 km/h (2 Bft) 97,87 %
16.05.2023 07:08 7,4 C 6,7 C 3,3 C 94 % 1020,1 hPa 0,0 l/m 0 min 0 min 32 W/m 9,7 km/h (2 Bft) 95,74 %
16.05.2023 07:10 7,4 C 6,7 C 3,3 C 94 % 1020,2 hPa 0,0 l/m 0 min 0 min 33 W/m 6,4 km/h (2 Bft) 97,87 %
16.05.2023 07:12 7,4 C 6,7 C 3,3 C 94 % 1020,1 hPa 0,0 l/m 0 min 0 min 33 W/m 6,4 km/h (2 Bft) 97,87 %
16.05.2023 07:14 7,5 C 6,7 C 3,3 C 94 % 1020,2 hPa 0,0 l/m 0 min 0 min 33 W/m 6,4 km/h (2 Bft) 95,65 %
16.05.2023 07:16 7,5 C 7,2 C 3,3 C 94 % 1020,2 hPa 0,0 l/m 0 min 0 min 34 W/m 6,4 km/h (2 Bft) 97,87 %
16.05.2023 07:18 7,5 C 7,2 C 3,9 C 94 % 1020,2 hPa 0,0 l/m 0 min 0 min 35 W/m 3,2 km/h (1 Bft) 97,87 %
16.05.2023 07:20 7,5 C 7,2 C 3,9 C 94 % 1020,2 hPa 0,0 l/m 0 min 0 min 35 W/m 9,7 km/h (2 Bft) 91,49 %
16.05.2023 07:22 7,6 C 7,2 C 3,9 C 95 % 1020,2 hPa 0,0 l/m 0 min 0 min 37 W/m 6,4 km/h (2 Bft) 95,74 %
16.05.2023 07:24 7,6 C 7,2 C 3,9 C 95 % 1020,2 hPa 0,0 l/m 0 min 0 min 37 W/m 9,7 km/h (2 Bft) 95,74 %
16.05.2023 07:26 7,6 C 7,2 C 3,9 C 95 % 1020,3 hPa 0,0 l/m 0 min 0 min 39 W/m 9,7 km/h (2 Bft) 95,65 %
16.05.2023 07:28 7,6 C 7,2 C 3,9 C 95 % 1020,3 hPa 0,0 l/m 0 min 0 min 40 W/m 6,4 km/h (2 Bft) 95,74 %
16.05.2023 07:30 7,7 C 7,2 C 3,9 C 95 % 1020,3 hPa 0,0 l/m 0 min 0 min 40 W/m 12,9 km/h (3 Bft) 95,74 %
16.05.2023 07:32 7,7 C 7,2 C 3,9 C 95 % 1020,3 hPa 0,0 l/m 0 min 0 min 42 W/m 12,9 km/h (3 Bft) 93,62 %
16.05.2023 07:34 7,7 C 7,2 C 3,9 C 95 % 1020,4 hPa 0,0 l/m 0 min 0 min 43 W/m 6,4 km/h (2 Bft) 95,74 %
16.05.2023 07:36 7,7 C 7,2 C 3,9 C 95 % 1020,4 hPa 0,0 l/m 0 min 0 min 44 W/m 19,3 km/h (3 Bft) 95,74 %
16.05.2023 07:38 7,7 C 7,2 C 3,9 C 95 % 1020,4 hPa 0,0 l/m 0 min 0 min 45 W/m 19,3 km/h (3 Bft) 93,62 %
16.05.2023 07:40 7,8 C 7,2 C 3,9 C 95 % 1020,4 hPa 0,0 l/m 0 min 0 min 47 W/m 9,7 km/h (2 Bft) 95,65 %
16.05.2023 07:42 7,8 C 7,2 C 3,9 C 94 % 1020,5 hPa 0,0 l/m 0 min 0 min 47 W/m 6,4 km/h (2 Bft) 95,74 %
16.05.2023 07:44 7,9 C 7,8 C 4,4 C 94 % 1020,5 hPa 0,0 l/m 0 min 0 min 47 W/m 12,9 km/h (3 Bft) 93,62 %
16.05.2023 07:46 7,9 C 7,2 C 4,4 C 94 % 1020,5 hPa 0,0 l/m 0 min 0 min 49 W/m 12,9 km/h (3 Bft) 95,74 %
16.05.2023 07:48 7,9 C 7,8 C 4,4 C 94 % 1020,5 hPa 0,0 l/m 0 min 0 min 49 W/m 12,9 km/h (3 Bft) 95,74 %
16.05.2023 07:50 7,9 C 7,8 C 4,4 C 94 % 1020,5 hPa 0,0 l/m 0 min 0 min 51 W/m 9,7 km/h (2 Bft) 91,49 %
16.05.2023 07:52 8,0 C 7,8 C 4,4 C 94 % 1020,5 hPa 0,0 l/m 0 min 0 min 52 W/m 9,7 km/h (2 Bft) 93,62 %
16.05.2023 07:54 8,0 C 7,8 C 4,4 C 94 % 1020,5 hPa 0,0 l/m 0 min 0 min 68 W/m 9,7 km/h (2 Bft) 100,00 %
16.05.2023 07:56 8,1 C 7,8 C 4,4 C 94 % 1020,6 hPa 0,0 l/m 2 min 0 min 159 W/m 12,9 km/h (3 Bft) 93,62 %
16.05.2023 07:58 8,1 C 7,8 C 4,4 C 94 % 1020,6 hPa 0,0 l/m 2 min 0 min 244 W/m 12,9 km/h (3 Bft) 100,00 %
16.05.2023 08:00 8,1 C 7,8 C 4,4 C 94 % 1020,6 hPa 0,0 l/m 2 min 0 min 257 W/m 12,9 km/h (3 Bft) 100,00 %
16.05.2023 08:02 8,2 C 7,8 C 4,4 C 94 % 1020,6 hPa 0,0 l/m 2 min 0 min 268 W/m 12,9 km/h (3 Bft) 93,62 %
16.05.2023 08:04 8,2 C 7,8 C 4,4 C 94 % 1020,5 hPa 0,0 l/m 2 min 0 min 272 W/m 16,1 km/h (3 Bft) 97,62 %
16.05.2023 08:06 8,2 C 8,3 C 4,4 C 94 % 1020,6 hPa 0,0 l/m 2 min 0 min 205 W/m 6,4 km/h (2 Bft) 97,87 %
16.05.2023 08:08 8,3 C 8,3 C 4,4 C 94 % 1020,6 hPa 0,0 l/m 2 min 0 min 200 W/m 9,7 km/h (2 Bft) 100,00 %
16.05.2023 08:10 8,3 C 8,3 C 4,4 C 94 % 1020,6 hPa 0,0 l/m 2 min 0 min 256 W/m 12,9 km/h (3 Bft) 100,00 %
16.05.2023 08:12 8,4 C 8,9 C 4,4 C 94 % 1020,6 hPa 0,0 l/m 2 min 0 min 290 W/m 12,9 km/h (3 Bft) 100,00 %
16.05.2023 08:14 8,4 C 8,9 C 5,0 C 94 % 1020,7 hPa 0,0 l/m 2 min 0 min 302 W/m 22,5 km/h (4 Bft) 97,87 %
16.05.2023 08:16 8,5 C 9,4 C 4,4 C 93 % 1020,7 hPa 0,0 l/m 0 min 0 min 157 W/m 19,3 km/h (3 Bft) 100,00 %
16.05.2023 08:18 8,5 C 10,0 C 5,0 C 93 % 1020,7 hPa 0,0 l/m 0 min 0 min 72 W/m 16,1 km/h (3 Bft) 100,00 %
16.05.2023 08:20 8,6 C 10,6 C 5,0 C 93 % 1020,8 hPa 0,0 l/m 0 min 0 min 72 W/m 9,7 km/h (2 Bft) 100,00 %
16.05.2023 08:22 8,7 C 11,7 C 5,0 C 93 % 1020,8 hPa 0,0 l/m 2 min 0 min 248 W/m 9,7 km/h (2 Bft) 97,87 %
16.05.2023 08:24 8,8 C 12,2 C 5,0 C 93 % 1020,8 hPa 0,0 l/m 2 min 0 min 309 W/m 16,1 km/h (3 Bft) 100,00 %
16.05.2023 08:26 8,8 C 11,7 C 5,0 C 92 % 1020,8 hPa 0,0 l/m 2 min 0 min 347 W/m 9,7 km/h (2 Bft) 97,87 %
16.05.2023 08:28 8,9 C 11,7 C 5,0 C 92 % 1020,8 hPa 0,0 l/m 2 min 0 min 350 W/m 6,4 km/h (2 Bft) 100,00 %
16.05.2023 08:30 9,0 C 12,8 C 5,6 C 92 % 1020,8 hPa 0,0 l/m 2 min 0 min 395 W/m 3,2 km/h (1 Bft) 100,00 %
16.05.2023 08:32 9,1 C 12,8 C 5,6 C 92 % 1020,8 hPa 0,0 l/m 2 min 0 min 358 W/m 16,1 km/h (3 Bft) 100,00 %
16.05.2023 08:34 9,2 C 11,7 C 5,6 C 91 % 1020,8 hPa 0,0 l/m 0 min 0 min 130 W/m 12,9 km/h (3 Bft) 100,00 %
16.05.2023 08:36 9,3 C 11,7 C 5,6 C 91 % 1020,8 hPa 0,0 l/m 0 min 0 min 148 W/m 16,1 km/h (3 Bft) 100,00 %
16.05.2023 08:38 9,3 C 12,8 C 6,1 C 91 % 1020,8 hPa 0,0 l/m 2 min 0 min 448 W/m 16,1 km/h (3 Bft) 100,00 %
16.05.2023 08:40 9,5 C 12,8 C 6,1 C 91 % 1020,9 hPa 0,0 l/m 2 min 0 min 502 W/m 25,7 km/h (4 Bft) 97,87 %
16.05.2023 08:42 9,6 C 11,1 C 6,1 C 90 % 1020,8 hPa 0,0 l/m 0 min 0 min 148 W/m 16,1 km/h (3 Bft) 95,74 %
16.05.2023 08:44 9,6 C 11,7 C 6,1 C 89 % 1020,9 hPa 0,0 l/m 0 min 0 min 91 W/m 12,9 km/h (3 Bft) 97,83 %
16.05.2023 08:46 9,7 C 11,7 C 6,1 C 89 % 1020,9 hPa 0,0 l/m 0 min 0 min 91 W/m 12,9 km/h (3 Bft) 97,87 %
16.05.2023 08:48 9,7 C 11,1 C 6,1 C 89 % 1020,9 hPa 0,0 l/m 0 min 0 min 91 W/m 22,5 km/h (4 Bft) 100,00 %
16.05.2023 08:50 9,7 C 10,6 C 6,1 C 88 % 1021,0 hPa 0,0 l/m 0 min 0 min 101 W/m 19,3 km/h (3 Bft) 95,74 %
16.05.2023 08:52 9,7 C 10,0 C 6,1 C 87 % 1020,9 hPa 0,0 l/m 0 min 0 min 106 W/m 19,3 km/h (3 Bft) 100,00 %
16.05.2023 08:54 9,6 C 10,0 C 5,6 C 87 % 1021,0 hPa 0,0 l/m 0 min 0 min 159 W/m 9,7 km/h (2 Bft) 100,00 %
16.05.2023 08:56 9,6 C 10,6 C 6,1 C 86 % 1021,0 hPa 0,0 l/m 0 min 0 min 173 W/m 22,5 km/h (4 Bft) 100,00 %
16.05.2023 08:58 9,6 C 10,6 C 6,1 C 86 % 1021,0 hPa 0,0 l/m 0 min 0 min 188 W/m 16,1 km/h (3 Bft) 97,87 %
16.05.2023 09:00 9,7 C 12,2 C 6,7 C 86 % 1021,0 hPa 0,0 l/m 0 min 0 min 187 W/m 22,5 km/h (4 Bft) 95,74 %
16.05.2023 09:02 9,8 C 13,9 C 7,2 C 86 % 1020,9 hPa 0,0 l/m 2 min 0 min 558 W/m 9,7 km/h (2 Bft) 97,87 %
16.05.2023 09:04 9,9 C 13,3 C 7,8 C 86 % 1021,0 hPa 0,0 l/m 2 min 0 min 292 W/m 9,7 km/h (2 Bft) 98,04 %
16.05.2023 09:06 10,1 C 13,9 C 7,8 C 86 % 1021,0 hPa 0,0 l/m 0 min 0 min 187 W/m 19,3 km/h (3 Bft) 95,65 %
16.05.2023 09:08 10,2 C 13,9 C 7,8 C 85 % 1021,0 hPa 0,0 l/m 2 min 0 min 515 W/m 19,3 km/h (3 Bft) 95,74 %
16.05.2023 09:10 10,3 C 12,8 C 7,8 C 85 % 1021,0 hPa 0,0 l/m 2 min 0 min 396 W/m 22,5 km/h (4 Bft) 95,74 %
16.05.2023 09:12 10,3 C 11,7 C 7,2 C 84 % 1020,9 hPa 0,0 l/m 0 min 0 min 98 W/m 19,3 km/h (3 Bft) 97,87 %
16.05.2023 09:14 10,2 C 10,6 C 6,7 C 83 % 1021,0 hPa 0,0 l/m 0 min 0 min 107 W/m 16,1 km/h (3 Bft) 97,87 %
16.05.2023 09:16 10,2 C 10,6 C 6,7 C 83 % 1021,0 hPa 0,0 l/m 0 min 0 min 117 W/m 22,5 km/h (4 Bft) 97,87 %
16.05.2023 09:18 10,2 C 10,0 C 6,7 C 82 % 1021,0 hPa 0,0 l/m 0 min 0 min 108 W/m 19,3 km/h (3 Bft) 95,74 %
16.05.2023 09:20 10,1 C 10,0 C 6,7 C 82 % 1021,1 hPa 0,0 l/m 0 min 0 min 171 W/m 25,7 km/h (4 Bft) 95,65 %
16.05.2023 09:22 10,1 C 10,0 C 6,7 C 82 % 1021,0 hPa 0,0 l/m 0 min 0 min 178 W/m 29,0 km/h (5 Bft) 95,74 %
16.05.2023 09:24 10,1 C 11,7 C 7,2 C 83 % 1021,1 hPa 0,0 l/m 0 min 0 min 178 W/m 16,1 km/h (3 Bft) 93,62 %
16.05.2023 09:26 10,2 C 12,8 C 7,8 C 83 % 1021,0 hPa 0,0 l/m 0 min 0 min 178 W/m 16,1 km/h (3 Bft) 93,62 %
16.05.2023 09:28 10,3 C 13,9 C 8,3 C 83 % 1021,0 hPa 0,0 l/m 0 min 0 min 178 W/m 22,5 km/h (4 Bft) 93,62 %
16.05.2023 09:30 10,5 C 15,0 C 8,9 C 82 % 1021,1 hPa 0,0 l/m 2 min 0 min 632 W/m 19,3 km/h (3 Bft) 97,87 %
16.05.2023 09:32 10,7 C 15,6 C 9,4 C 82 % 1021,1 hPa 0,0 l/m 2 min 0 min 663 W/m 16,1 km/h (3 Bft) 95,74 %
16.05.2023 09:34 10,9 C 16,1 C 10,0 C 82 % 1021,1 hPa 0,0 l/m 2 min 0 min 627 W/m 16,1 km/h (3 Bft) 95,65 %
16.05.2023 09:36 11,2 C 16,1 C 10,0 C 81 % 1021,1 hPa 0,0 l/m 2 min 0 min 592 W/m 9,7 km/h (2 Bft) 95,74 %
16.05.2023 09:38 11,3 C 15,6 C 10,0 C 81 % 1021,2 hPa 0,0 l/m 2 min 0 min 592 W/m 19,3 km/h (3 Bft) 95,74 %
16.05.2023 09:40 11,3 C 13,9 C 9,4 C 79 % 1021,1 hPa 0,0 l/m 0 min 0 min 234 W/m 22,5 km/h (4 Bft) 95,74 %
16.05.2023 09:42 11,3 C 13,9 C 9,4 C 78 % 1021,2 hPa 0,0 l/m 0 min 0 min 160 W/m 25,7 km/h (4 Bft) 95,74 %
16.05.2023 09:44 11,3 C 13,3 C 8,9 C 78 % 1021,2 hPa 0,0 l/m 0 min 0 min 128 W/m 19,3 km/h (3 Bft) 95,74 %
16.05.2023 09:46 11,3 C 13,3 C 8,3 C 77 % 1021,2 hPa 0,0 l/m 0 min 0 min 125 W/m 25,7 km/h (4 Bft) 95,65 %
16.05.2023 09:48 11,3 C 12,8 C 7,8 C 77 % 1021,1 hPa 0,0 l/m 0 min 0 min 101 W/m 19,3 km/h (3 Bft) 95,74 %
16.05.2023 09:50 11,2 C 12,8 C 7,8 C 77 % 1021,1 hPa 0,0 l/m 0 min 0 min 123 W/m 12,9 km/h (3 Bft) 97,87 %
16.05.2023 09:52 11,2 C 13,3 C 8,3 C 78 % 1021,1 hPa 0,0 l/m 0 min 0 min 134 W/m 12,9 km/h (3 Bft) 97,87 %
16.05.2023 09:54 11,2 C 13,9 C 8,9 C 78 % 1021,1 hPa 0,0 l/m 2 min 0 min 329 W/m 12,9 km/h (3 Bft) 93,62 %
16.05.2023 09:56 11,3 C 14,4 C 9,4 C 78 % 1021,1 hPa 0,0 l/m 2 min 0 min 439 W/m 22,5 km/h (4 Bft) 95,74 %
16.05.2023 09:58 11,4 C 15,0 C 10,0 C 78 % 1021,2 hPa 0,0 l/m 2 min 0 min 494 W/m 16,1 km/h (3 Bft) 93,62 %
16.05.2023 10:00 11,6 C 15,6 C 10,6 C 78 % 1021,1 hPa 0,0 l/m 2 min 0 min 802 W/m 16,1 km/h (3 Bft) 95,74 %
16.05.2023 10:02 11,7 C 15,0 C 10,0 C 77 % 1021,1 hPa 0,0 l/m 2 min 0 min 655 W/m 19,3 km/h (3 Bft) 95,65 %
16.05.2023 10:04 11,8 C 14,4 C 9,4 C 77 % 1021,1 hPa 0,0 l/m 0 min 0 min 199 W/m 16,1 km/h (3 Bft) 95,74 %
16.05.2023 10:06 11,8 C 13,3 C 8,9 C 77 % 1021,1 hPa 0,0 l/m 0 min 0 min 155 W/m 12,9 km/h (3 Bft) 93,75 %
16.05.2023 10:08 11,7 C 12,2 C 8,3 C 76 % 1021,1 hPa 0,0 l/m 0 min 0 min 115 W/m 32,2 km/h (5 Bft) 95,74 %
16.05.2023 10:10 11,7 C 12,2 C 8,3 C 76 % 1021,2 hPa 0,0 l/m 0 min 0 min 146 W/m 16,1 km/h (3 Bft) 93,62 %
16.05.2023 10:12 11,6 C 11,7 C 8,3 C 76 % 1021,1 hPa 0,0 l/m 0 min 0 min 156 W/m 19,3 km/h (3 Bft) 93,62 %
16.05.2023 10:14 11,5 C 11,7 C 7,8 C 76 % 1021,1 hPa 0,0 l/m 0 min 0 min 125 W/m 22,5 km/h (4 Bft) 93,62 %
16.05.2023 10:16 11,4 C 11,1 C 7,8 C 76 % 1021,1 hPa 0,0 l/m 0 min 0 min 126 W/m 12,9 km/h (3 Bft) 95,65 %
16.05.2023 10:18 11,3 C 11,1 C 7,2 C 76 % 1021,1 hPa 0,0 l/m 0 min 0 min 132 W/m 19,3 km/h (3 Bft) 95,74 %
16.05.2023 10:20 11,2 C 11,1 C 7,2 C 76 % 1021,2 hPa 0,0 l/m 0 min 0 min 167 W/m 16,1 km/h (3 Bft) 95,74 %
16.05.2023 10:22 11,1 C 11,1 C 7,8 C 76 % 1021,2 hPa 0,0 l/m 0 min 0 min 144 W/m 16,1 km/h (3 Bft) 95,74 %
16.05.2023 10:24 11,1 C 11,1 C 7,8 C 77 % 1021,2 hPa 0,0 l/m 0 min 0 min 132 W/m 16,1 km/h (3 Bft) 95,74 %
16.05.2023 10:26 11,1 C 11,7 C 7,8 C 77 % 1021,2 hPa 0,0 l/m 0 min 0 min 172 W/m 16,1 km/h (3 Bft) 95,74 %
16.05.2023 10:28 11,1 C 11,7 C 7,8 C 77 % 1021,1 hPa 0,0 l/m 0 min 0 min 155 W/m 22,5 km/h (4 Bft) 95,65 %
16.05.2023 10:30 11,1 C 12,2 C 8,3 C 77 % 1021,2 hPa 0,0 l/m 0 min 0 min 250 W/m 16,1 km/h (3 Bft) 95,74 %
16.05.2023 10:32 11,2 C 12,8 C 8,9 C 77 % 1021,2 hPa 0,0 l/m 2 min 0 min 810 W/m 12,9 km/h (3 Bft) 97,87 %
16.05.2023 10:34 11,3 C 12,8 C 8,9 C 76 % 1021,2 hPa 0,0 l/m 2 min 0 min 805 W/m 19,3 km/h (3 Bft) 97,87 %
16.05.2023 10:36 11,4 C 12,2 C 8,9 C 76 % 1021,2 hPa 0,0 l/m 2 min 0 min 376 W/m 22,5 km/h (4 Bft) 97,87 %
16.05.2023 10:38 11,5 C 12,2 C 8,3 C 75 % 1021,2 hPa 0,0 l/m 0 min 0 min 226 W/m 19,3 km/h (3 Bft) 95,74 %
16.05.2023 10:40 11,5 C 12,2 C 8,3 C 75 % 1021,2 hPa 0,0 l/m 0 min 0 min 167 W/m 22,5 km/h (4 Bft) 97,87 %
16.05.2023 10:42 11,6 C 11,7 C 7,8 C 75 % 1021,2 hPa 0,0 l/m 0 min 0 min 160 W/m 16,1 km/h (3 Bft) 97,83 %
16.05.2023 10:44 11,6 C 11,7 C 7,8 C 75 % 1021,2 hPa 0,0 l/m 0 min 0 min 171 W/m 22,5 km/h (4 Bft) 97,87 %
16.05.2023 10:46 11,5 C 11,7 C 7,8 C 75 % 1021,2 hPa 0,0 l/m 0 min 0 min 165 W/m 12,9 km/h (3 Bft) 100,00 %
16.05.2023 10:48 11,5 C 12,2 C 8,3 C 75 % 1021,2 hPa 0,0 l/m 0 min 0 min 309 W/m 12,9 km/h (3 Bft) 100,00 %
16.05.2023 10:50 11,6 C 12,8 C 8,3 C 76 % 1021,1 hPa 0,0 l/m 2 min 0 min 902 W/m 16,1 km/h (3 Bft) 100,00 %
16.05.2023 10:52 11,6 C 12,2 C 8,3 C 76 % 1021,2 hPa 0,0 l/m 0 min 0 min 252 W/m 25,7 km/h (4 Bft) 97,87 %
16.05.2023 10:54 11,7 C 12,2 C 8,3 C 75 % 1021,2 hPa 0,0 l/m 0 min 0 min 222 W/m 19,3 km/h (3 Bft) 100,00 %
16.05.2023 10:56 11,7 C 12,2 C 8,3 C 74 % 1021,2 hPa 0,0 l/m 0 min 0 min 259 W/m 16,1 km/h (3 Bft) 95,65 %
16.05.2023 10:58 11,7 C 12,8 C 8,3 C 74 % 1021,2 hPa 0,0 l/m 0 min 0 min 300 W/m 12,9 km/h (3 Bft) 100,00 %
16.05.2023 11:00 11,7 C 12,8 C 8,3 C 75 % 1021,2 hPa 0,0 l/m 0 min 0 min 253 W/m 12,9 km/h (3 Bft) 97,87 %
16.05.2023 11:02 11,8 C 14,4 C 8,9 C 75 % 1021,2 hPa 0,0 l/m 2 min 0 min 487 W/m 19,3 km/h (3 Bft) 100,00 %
16.05.2023 11:04 11,9 C 13,9 C 8,9 C 75 % 1021,2 hPa 0,0 l/m 2 min 0 min 548 W/m 9,7 km/h (2 Bft) 100,00 %
16.05.2023 11:06 12,1 C 13,3 C 8,9 C 74 % 1021,3 hPa 0,0 l/m 0 min 0 min 195 W/m 19,3 km/h (3 Bft) 100,00 %
16.05.2023 11:08 12,1 C 13,9 C 8,9 C 73 % 1021,2 hPa 0,0 l/m 0 min 0 min 229 W/m 16,1 km/h (3 Bft) 97,87 %
16.05.2023 11:10 12,2 C 14,4 C 8,9 C 74 % 1021,2 hPa 0,0 l/m 0 min 0 min 232 W/m 19,3 km/h (3 Bft) 97,83 %
16.05.2023 11:12 12,3 C 14,4 C 8,9 C 73 % 1021,2 hPa 0,0 l/m 0 min 0 min 232 W/m 16,1 km/h (3 Bft) 95,74 %
16.05.2023 11:14 12,4 C 15,6 C 9,4 C 73 % 1021,2 hPa 0,0 l/m 2 min 0 min 789 W/m 22,5 km/h (4 Bft) 97,87 %
16.05.2023 11:16 12,7 C 16,7 C 9,4 C 72 % 1021,2 hPa 0,0 l/m 2 min 0 min 927 W/m 19,3 km/h (3 Bft) 97,87 %
16.05.2023 11:18 12,9 C 17,2 C 10,0 C 71 % 1021,2 hPa 0,0 l/m 2 min 0 min 932 W/m 9,7 km/h (2 Bft) 97,87 %
16.05.2023 11:20 13,2 C 17,8 C 10,6 C 71 % 1021,2 hPa 0,0 l/m 2 min 0 min 944 W/m 22,5 km/h (4 Bft) 95,74 %
16.05.2023 11:22 13,4 C 17,8 C 10,6 C 71 % 1021,2 hPa 0,0 l/m 2 min 0 min 953 W/m 16,1 km/h (3 Bft) 97,83 %
16.05.2023 11:24 13,6 C 18,3 C 10,6 C 70 % 1021,2 hPa 0,0 l/m 2 min 0 min 953 W/m 16,1 km/h (3 Bft) 97,87 %
16.05.2023 11:26 13,8 C 18,9 C 10,6 C 70 % 1021,2 hPa 0,0 l/m 2 min 0 min 957 W/m 16,1 km/h (3 Bft) 97,87 %
16.05.2023 11:28 13,9 C 18,9 C 11,1 C 70 % 1021,2 hPa 0,0 l/m 2 min 0 min 1011 W/m 19,3 km/h (3 Bft) 97,87 %
16.05.2023 11:30 13,9 C 17,2 C 10,6 C 69 % 1021,2 hPa 0,0 l/m 2 min 0 min 817 W/m 22,5 km/h (4 Bft) 97,87 %
16.05.2023 11:32 13,9 C 17,8 C 10,6 C 71 % 1021,2 hPa 0,0 l/m 0 min 0 min 323 W/m 19,3 km/h (3 Bft) 97,87 %
16.05.2023 11:34 13,9 C 15,6 C 10,6 C 71 % 1021,1 hPa 0,0 l/m 0 min 0 min 323 W/m 22,5 km/h (4 Bft) 97,83 %
16.05.2023 11:36 13,9 C 15,0 C 10,0 C 71 % 1021,1 hPa 0,0 l/m 0 min 0 min 323 W/m 16,1 km/h (3 Bft) 97,87 %
16.05.2023 11:38 13,8 C 15,0 C 10,0 C 70 % 1021,1 hPa 0,0 l/m 0 min 0 min 326 W/m 9,7 km/h (2 Bft) 95,74 %
16.05.2023 11:40 13,7 C 14,4 C 10,0 C 70 % 1021,1 hPa 0,0 l/m 0 min 0 min 366 W/m 22,5 km/h (4 Bft) 97,87 %
16.05.2023 11:42 13,7 C 15,6 C 10,6 C 70 % 1021,1 hPa 0,0 l/m 2 min 0 min 503 W/m 16,1 km/h (3 Bft) 97,87 %
16.05.2023 11:44 13,7 C 15,6 C 10,6 C 70 % 1021,1 hPa 0,0 l/m 0 min 0 min 376 W/m 12,9 km/h (3 Bft) 97,87 %
16.05.2023 11:46 13,7 C 16,7 C 10,6 C 70 % 1021,1 hPa 0,0 l/m 0 min 0 min 169 W/m 9,7 km/h (2 Bft) 97,83 %
16.05.2023 11:48 13,8 C 18,3 C 10,6 C 71 % 1021,0 hPa 0,0 l/m 2 min 0 min 755 W/m 19,3 km/h (3 Bft) 97,87 %
16.05.2023 11:50 13,8 C 18,9 C 10,6 C 70 % 1021,0 hPa 0,0 l/m 2 min 0 min 898 W/m 22,5 km/h (4 Bft) 100,00 %
16.05.2023 11:52 13,9 C 20,0 C 11,1 C 69 % 1021,0 hPa 0,0 l/m 2 min 0 min 1012 W/m 6,4 km/h (2 Bft) 97,87 %
16.05.2023 11:54 14,1 C 20,6 C 11,1 C 69 % 1021,0 hPa 0,0 l/m 2 min 0 min 1057 W/m 9,7 km/h (2 Bft) 100,00 %
16.05.2023 11:56 14,3 C 21,1 C 11,7 C 69 % 1021,1 hPa 0,0 l/m 2 min 0 min 798 W/m 19,3 km/h (3 Bft) 100,00 %
16.05.2023 11:58 14,3 C 21,1 C 11,7 C 67 % 1021,0 hPa 0,0 l/m 2 min 0 min 800 W/m 22,5 km/h (4 Bft) 100,00 %
16.05.2023 12:00 14,6 C 21,1 C 12,2 C 67 % 1021,0 hPa 0,0 l/m 2 min 0 min 802 W/m 9,7 km/h (2 Bft) 100,00 %
16.05.2023 12:02 14,8 C 19,4 C 12,2 C 67 % 1021,0 hPa 0,0 l/m 2 min 0 min 814 W/m 25,7 km/h (4 Bft) 100,00 %
16.05.2023 12:04 14,8 C 17,2 C 11,7 C 66 % 1021,0 hPa 0,0 l/m 0 min 0 min 300 W/m 22,5 km/h (4 Bft) 100,00 %
16.05.2023 12:07 14,7 C 15,0 C 10,6 C 65 % 1021,1 hPa 0,0 l/m 0 min 0 min 227 W/m 22,5 km/h (4 Bft) 100,00 %
16.05.2023 12:08 14,7 C 15,0 C 10,6 C 66 % 1021,1 hPa 0,0 l/m 0 min 0 min 244 W/m 22,5 km/h (4 Bft) 100,00 %
16.05.2023 12:10 14,6 C 14,4 C 10,0 C 66 % 1021,1 hPa 0,0 l/m 0 min 0 min 239 W/m 19,3 km/h (3 Bft) 100,00 %
16.05.2023 12:12 14,4 C 14,4 C 10,0 C 66 % 1021,1 hPa 0,0 l/m 0 min 0 min 297 W/m 12,9 km/h (3 Bft) 100,00 %
16.05.2023 12:14 14,3 C 14,4 C 10,6 C 67 % 1021,1 hPa 0,0 l/m 0 min 0 min 376 W/m 19,3 km/h (3 Bft) 100,00 %
16.05.2023 12:16 14,3 C 16,7 C 11,7 C 68 % 1021,1 hPa 0,0 l/m 2 min 0 min 611 W/m 22,5 km/h (4 Bft) 100,00 %
16.05.2023 12:18 14,3 C 15,6 C 11,7 C 67 % 1021,1 hPa 0,0 l/m 2 min 0 min 575 W/m 25,7 km/h (4 Bft) 100,00 %
16.05.2023 12:20 14,3 C 15,0 C 11,1 C 66 % 1021,2 hPa 0,0 l/m 0 min 0 min 308 W/m 32,2 km/h (5 Bft) 97,87 %
16.05.2023 12:22 14,2 C 16,7 C 12,2 C 66 % 1021,1 hPa 0,0 l/m 0 min 0 min 346 W/m 9,7 km/h (2 Bft) 100,00 %
16.05.2023 12:24 14,3 C 18,9 C 14,4 C 68 % 1021,1 hPa 0,0 l/m 2 min 0 min 1053 W/m 12,9 km/h (3 Bft) 100,00 %
16.05.2023 12:26 14,3 C 16,7 C 13,3 C 68 % 1021,2 hPa 0,0 l/m 2 min 0 min 776 W/m 19,3 km/h (3 Bft) 100,00 %
16.05.2023 12:28 14,3 C 15,6 C 11,7 C 67 % 1021,2 hPa 0,0 l/m 0 min 0 min 337 W/m 22,5 km/h (4 Bft) 100,00 %
16.05.2023 12:30 14,3 C 14,4 C 11,1 C 66 % 1021,2 hPa 0,0 l/m 0 min 0 min 275 W/m 22,5 km/h (4 Bft) 100,00 %
16.05.2023 12:32 14,2 C 14,4 C 11,1 C 67 % 1021,2 hPa 0,0 l/m 0 min 0 min 240 W/m 19,3 km/h (3 Bft) 97,87 %
16.05.2023 12:34 14,1 C 13,9 C 10,6 C 66 % 1021,2 hPa 0,0 l/m 0 min 0 min 196 W/m 16,1 km/h (3 Bft) 95,74 %
16.05.2023 12:36 13,9 C 13,9 C 10,0 C 67 % 1021,3 hPa 0,0 l/m 0 min 0 min 179 W/m 19,3 km/h (3 Bft) 97,83 %
16.05.2023 12:38 13,8 C 13,3 C 9,4 C 67 % 1021,3 hPa 0,0 l/m 0 min 0 min 192 W/m 22,5 km/h (4 Bft) 97,87 %
16.05.2023 12:40 13,6 C 13,3 C 9,4 C 67 % 1021,2 hPa 0,0 l/m 0 min 0 min 227 W/m 12,9 km/h (3 Bft) 97,87 %
16.05.2023 12:42 13,6 C 13,3 C 9,4 C 68 % 1021,3 hPa 0,0 l/m 0 min 0 min 274 W/m 12,9 km/h (3 Bft) 97,87 %
16.05.2023 12:44 13,6 C 15,6 C 11,1 C 69 % 1021,3 hPa 0,0 l/m 0 min 0 min 308 W/m 16,1 km/h (3 Bft) 97,87 %
16.05.2023 12:46 13,6 C 18,3 C 12,8 C 70 % 1021,2 hPa 0,0 l/m 0 min 0 min 308 W/m 9,7 km/h (2 Bft) 97,87 %
16.05.2023 12:48 13,8 C 18,9 C 13,9 C 69 % 1021,2 hPa 0,0 l/m 0 min 0 min 308 W/m 12,9 km/h (3 Bft) 95,65 %
16.05.2023 12:50 13,9 C 18,9 C 13,9 C 69 % 1021,1 hPa 0,0 l/m 0 min 0 min 308 W/m 16,1 km/h (3 Bft) 95,74 %
16.05.2023 12:52 14,2 C 19,4 C 15,0 C 70 % 1021,2 hPa 0,0 l/m 2 min 0 min 872 W/m 16,1 km/h (3 Bft) 95,74 %
16.05.2023 12:54 14,3 C 18,3 C 13,3 C 69 % 1021,2 hPa 0,0 l/m 2 min 0 min 791 W/m 16,1 km/h (3 Bft) 97,87 %
16.05.2023 12:56 14,3 C 16,7 C 12,2 C 68 % 1021,1 hPa 0,0 l/m 0 min 0 min 312 W/m 19,3 km/h (3 Bft) 97,87 %
16.05.2023 12:58 14,3 C 16,1 C 11,1 C 68 % 1021,1 hPa 0,0 l/m 0 min 0 min 291 W/m 12,9 km/h (3 Bft) 97,87 %
16.05.2023 13:00 14,1 C 15,0 C 11,1 C 68 % 1021,1 hPa 0,0 l/m 0 min 0 min 312 W/m 19,3 km/h (3 Bft) 97,87 %
16.05.2023 13:02 13,9 C 15,6 C 10,6 C 68 % 1021,1 hPa 0,0 l/m 0 min 0 min 401 W/m 29,0 km/h (5 Bft) 97,83 %
16.05.2023 13:04 13,8 C 17,2 C 11,1 C 68 % 1021,1 hPa 0,0 l/m 2 min 0 min 462 W/m 16,1 km/h (3 Bft) 97,92 %
16.05.2023 13:06 13,9 C 19,4 C 11,1 C 69 % 1021,2 hPa 0,0 l/m 2 min 0 min 462 W/m 16,1 km/h (3 Bft) 97,87 %
16.05.2023 13:08 14,1 C 20,6 C 11,1 C 68 % 1021,2 hPa 0,0 l/m 2 min 0 min 846 W/m 9,7 km/h (2 Bft) 97,87 %
16.05.2023 13:10 14,3 C 21,1 C 11,1 C 67 % 1021,2 hPa 0,0 l/m 2 min 0 min 1056 W/m 16,1 km/h (3 Bft) 93,62 %
16.05.2023 13:12 14,3 C 19,4 C 11,1 C 66 % 1021,1 hPa 0,0 l/m 2 min 0 min 1066 W/m 12,9 km/h (3 Bft) 95,74 %
16.05.2023 13:14 14,5 C 20,0 C 11,7 C 66 % 1021,1 hPa 0,0 l/m 2 min 0 min 1130 W/m 16,1 km/h (3 Bft) 97,83 %
16.05.2023 13:16 14,6 C 18,3 C 11,1 C 65 % 1021,1 hPa 0,0 l/m 2 min 0 min 831 W/m 16,1 km/h (3 Bft) 97,87 %
16.05.2023 13:18 14,5 C 16,7 C 10,6 C 65 % 1021,1 hPa 0,0 l/m 0 min 0 min 198 W/m 9,7 km/h (2 Bft) 95,74 %
16.05.2023 13:20 14,4 C 15,6 C 10,6 C 65 % 1021,1 hPa 0,0 l/m 0 min 0 min 200 W/m 16,1 km/h (3 Bft) 95,74 %
16.05.2023 13:22 14,3 C 14,4 C 10,6 C 66 % 1021,2 hPa 0,0 l/m 0 min 0 min 250 W/m 22,5 km/h (4 Bft) 97,87 %
16.05.2023 13:24 14,3 C 14,4 C 10,0 C 67 % 1021,2 hPa 0,0 l/m 0 min 0 min 266 W/m 22,5 km/h (4 Bft) 97,87 %
16.05.2023 13:26 14,2 C 13,9 C 10,0 C 67 % 1021,3 hPa 0,0 l/m 0 min 0 min 207 W/m 19,3 km/h (3 Bft) 93,48 %
16.05.2023 13:28 14,1 C 13,9 C 10,0 C 68 % 1021,3 hPa 0,0 l/m 0 min 0 min 169 W/m 22,5 km/h (4 Bft) 97,87 %
16.05.2023 13:30 13,9 C 13,3 C 9,4 C 68 % 1021,3 hPa 0,0 l/m 0 min 0 min 150 W/m 16,1 km/h (3 Bft) 97,87 %
16.05.2023 13:32 13,8 C 12,8 C 8,9 C 70 % 1021,3 hPa 0,2 l/m 0 min 2 min 138 W/m 16,1 km/h (3 Bft) 97,87 %
16.05.2023 13:34 13,7 C 12,8 C 8,9 C 73 % 1021,3 hPa 0,0 l/m 0 min 2 min 158 W/m 12,9 km/h (3 Bft) 97,87 %
16.05.2023 13:36 13,6 C 12,8 C 8,3 C 74 % 1021,2 hPa 0,0 l/m 0 min 0 min 187 W/m 6,4 km/h (2 Bft) 97,87 %
16.05.2023 13:38 13,4 C 12,8 C 8,3 C 75 % 1021,2 hPa 0,0 l/m 0 min 0 min 209 W/m 6,4 km/h (2 Bft) 97,87 %
16.05.2023 13:40 13,3 C 12,8 C 8,9 C 76 % 1021,2 hPa 0,0 l/m 0 min 0 min 249 W/m 9,7 km/h (2 Bft) 97,83 %
16.05.2023 13:42 13,3 C 14,4 C 9,4 C 76 % 1021,3 hPa 0,0 l/m 0 min 0 min 346 W/m 12,9 km/h (3 Bft) 97,87 %
16.05.2023 13:44 13,3 C 17,2 C 11,7 C 77 % 1021,3 hPa 0,0 l/m 2 min 0 min 786 W/m 9,7 km/h (2 Bft) 97,87 %
16.05.2023 13:46 13,3 C 18,9 C 12,8 C 77 % 1021,3 hPa 0,0 l/m 2 min 0 min 1087 W/m 16,1 km/h (3 Bft) 97,87 %
16.05.2023 13:48 13,4 C 18,3 C 12,8 C 78 % 1021,3 hPa 0,0 l/m 2 min 0 min 751 W/m 6,4 km/h (2 Bft) 95,74 %
16.05.2023 13:50 13,6 C 17,2 C 12,2 C 78 % 1021,3 hPa 0,0 l/m 0 min 0 min 385 W/m 12,9 km/h (3 Bft) 100,00 %
16.05.2023 13:52 13,6 C 16,1 C 11,7 C 76 % 1021,3 hPa 0,0 l/m 0 min 0 min 299 W/m 16,1 km/h (3 Bft) 100,00 %
16.05.2023 13:54 13,6 C 15,0 C 10,6 C 74 % 1021,3 hPa 0,0 l/m 0 min 0 min 299 W/m 12,9 km/h (3 Bft) 100,00 %
16.05.2023 13:56 13,6 C 15,0 C 10,6 C 74 % 1021,2 hPa 0,0 l/m 0 min 0 min 320 W/m 16,1 km/h (3 Bft) 97,87 %
16.05.2023 13:58 13,6 C 15,6 C 10,6 C 74 % 1021,3 hPa 0,0 l/m 0 min 0 min 334 W/m 9,7 km/h (2 Bft) 100,00 %
16.05.2023 14:00 13,7 C 15,0 C 10,6 C 75 % 1021,3 hPa 0,0 l/m 0 min 0 min 260 W/m 6,4 km/h (2 Bft) 100,00 %
16.05.2023 14:02 13,7 C 14,4 C 10,0 C 75 % 1021,3 hPa 0,0 l/m 0 min 0 min 193 W/m 12,9 km/h (3 Bft) 100,00 %
16.05.2023 14:04 13,7 C 15,6 C 10,0 C 74 % 1021,3 hPa 0,0 l/m 0 min 0 min 202 W/m 9,7 km/h (2 Bft) 100,00 %
16.05.2023 14:06 13,8 C 18,9 C 10,0 C 74 % 1021,3 hPa 0,0 l/m 2 min 0 min 683 W/m 19,3 km/h (3 Bft) 97,87 %
16.05.2023 14:08 13,9 C 20,0 C 10,6 C 74 % 1021,2 hPa 0,0 l/m 2 min 0 min 969 W/m 19,3 km/h (3 Bft) 97,87 %
16.05.2023 14:10 14,1 C 21,1 C 10,6 C 73 % 1021,2 hPa 0,0 l/m 2 min 0 min 961 W/m 12,9 km/h (3 Bft) 95,74 %
16.05.2023 14:12 14,3 C 22,2 C 10,6 C 73 % 1021,3 hPa 0,0 l/m 2 min 0 min 936 W/m 19,3 km/h (3 Bft) 97,87 %
16.05.2023 14:14 14,4 C 22,2 C 10,6 C 71 % 1021,2 hPa 0,0 l/m 2 min 0 min 921 W/m 16,1 km/h (3 Bft) 97,87 %
16.05.2023 14:16 14,7 C 22,8 C 11,1 C 71 % 1021,1 hPa 0,0 l/m 2 min 0 min 915 W/m 12,9 km/h (3 Bft) 97,87 %
16.05.2023 14:18 14,9 C 23,9 C 11,1 C 70 % 1021,1 hPa 0,0 l/m 2 min 0 min 914 W/m 9,7 km/h (2 Bft) 97,83 %
16.05.2023 14:20 15,1 C 23,3 C 11,1 C 66 % 1021,1 hPa 0,0 l/m 2 min 0 min 917 W/m 12,9 km/h (3 Bft) 95,74 %
16.05.2023 14:22 15,2 C 23,3 C 11,1 C 65 % 1021,0 hPa 0,0 l/m 2 min 0 min 915 W/m 9,7 km/h (2 Bft) 97,87 %
16.05.2023 14:24 15,3 C 22,2 C 11,1 C 63 % 1021,1 hPa 0,0 l/m 2 min 0 min 914 W/m 9,7 km/h (2 Bft) 97,87 %
16.05.2023 14:26 15,3 C 22,8 C 11,1 C 63 % 1021,0 hPa 0,0 l/m 2 min 0 min 919 W/m 12,9 km/h (3 Bft) 97,87 %
16.05.2023 14:28 15,5 C 23,3 C 11,1 C 62 % 1021,0 hPa 0,0 l/m 2 min 0 min 917 W/m 16,1 km/h (3 Bft) 97,87 %
16.05.2023 14:30 15,6 C 23,3 C 11,1 C 62 % 1021,0 hPa 0,0 l/m 2 min 0 min 914 W/m 16,1 km/h (3 Bft) 97,83 %
16.05.2023 14:32 15,7 C 23,3 C 11,1 C 60 % 1021,1 hPa 0,0 l/m 2 min 0 min 928 W/m 16,1 km/h (3 Bft) 97,87 %
16.05.2023 14:34 15,8 C 22,8 C 11,1 C 60 % 1021,0 hPa 0,0 l/m 2 min 0 min 960 W/m 16,1 km/h (3 Bft) 97,87 %
16.05.2023 14:36 15,9 C 22,8 C 11,7 C 61 % 1021,0 hPa 0,0 l/m 2 min 0 min 1021 W/m 25,7 km/h (4 Bft) 97,87 %
16.05.2023 14:38 16,1 C 21,1 C 11,7 C 59 % 1021,1 hPa 0,0 l/m 2 min 0 min 606 W/m 16,1 km/h (3 Bft) 97,87 %
16.05.2023 14:40 16,1 C 20,6 C 11,7 C 58 % 1021,0 hPa 0,0 l/m 2 min 0 min 464 W/m 22,5 km/h (4 Bft) 97,87 %
16.05.2023 14:42 16,0 C 18,3 C 11,7 C 57 % 1021,1 hPa 0,0 l/m 0 min 0 min 325 W/m 16,1 km/h (3 Bft) 97,83 %
16.05.2023 14:44 15,9 C 17,2 C 11,7 C 57 % 1021,1 hPa 0,0 l/m 0 min 0 min 217 W/m 9,7 km/h (2 Bft) 97,87 %
16.05.2023 14:46 15,8 C 17,2 C 11,7 C 57 % 1021,1 hPa 0,0 l/m 0 min 0 min 213 W/m 16,1 km/h (3 Bft) 97,14 %
16.05.2023 14:48 15,7 C 18,3 C 11,1 C 56 % 1021,2 hPa 0,0 l/m 0 min 0 min 349 W/m 22,5 km/h (4 Bft) 98,31 %
16.05.2023 14:50 15,7 C 20,6 C 11,1 C 56 % 1021,2 hPa 0,0 l/m 2 min 0 min 924 W/m 22,5 km/h (4 Bft) 95,74 %
16.05.2023 14:52 15,8 C 20,6 C 11,7 C 55 % 1021,1 hPa 0,0 l/m 2 min 0 min 948 W/m 16,1 km/h (3 Bft) 97,87 %
16.05.2023 14:54 15,7 C 21,1 C 11,1 C 55 % 1021,1 hPa 0,0 l/m 2 min 0 min 924 W/m 22,5 km/h (4 Bft) 100,00 %
16.05.2023 14:56 15,8 C 21,7 C 11,7 C 56 % 1021,1 hPa 0,0 l/m 2 min 0 min 910 W/m 25,7 km/h (4 Bft) 98,28 %
16.05.2023 14:58 15,9 C 22,2 C 11,7 C 55 % 1021,1 hPa 0,0 l/m 2 min 0 min 911 W/m 16,1 km/h (3 Bft) 95,74 %
16.05.2023 15:00 16,0 C 21,7 C 11,7 C 55 % 1021,1 hPa 0,0 l/m 2 min 0 min 928 W/m 32,2 km/h (5 Bft) 97,87 %
16.05.2023 15:02 16,0 C 20,6 C 11,7 C 55 % 1021,3 hPa 0,0 l/m 2 min 0 min 958 W/m 32,2 km/h (5 Bft) 97,14 %
16.05.2023 15:04 15,9 C 20,0 C 11,7 C 55 % 1021,2 hPa 0,0 l/m 2 min 0 min 820 W/m 29,0 km/h (5 Bft) 96,72 %
16.05.2023 15:06 15,9 C 20,6 C 11,1 C 55 % 1021,1 hPa 0,0 l/m 2 min 0 min 782 W/m 35,4 km/h (5 Bft) 95,65 %
16.05.2023 15:08 15,9 C 20,6 C 11,7 C 55 % 1021,1 hPa 0,0 l/m 2 min 0 min 982 W/m 19,3 km/h (3 Bft) 95,74 %
16.05.2023 15:10 15,9 C 18,9 C 11,7 C 56 % 1021,2 hPa 0,0 l/m 2 min 0 min 942 W/m 32,2 km/h (5 Bft) 94,29 %
16.05.2023 15:12 16,0 C 20,6 C 11,7 C 55 % 1021,1 hPa 0,0 l/m 0 min 0 min 357 W/m 19,3 km/h (3 Bft) 97,87 %
16.05.2023 15:14 16,1 C 19,4 C 11,7 C 56 % 1021,0 hPa 0,0 l/m 2 min 0 min 387 W/m 22,5 km/h (4 Bft) 97,87 %
16.05.2023 15:16 16,1 C 18,3 C 12,2 C 57 % 1021,1 hPa 0,0 l/m 0 min 0 min 358 W/m 19,3 km/h (3 Bft) 95,74 %
16.05.2023 15:18 16,0 C 17,2 C 11,7 C 55 % 1021,1 hPa 0,0 l/m 0 min 0 min 323 W/m 29,0 km/h (5 Bft) 95,74 %
16.05.2023 15:20 15,9 C 16,7 C 11,7 C 55 % 1021,2 hPa 0,0 l/m 0 min 0 min 303 W/m 25,7 km/h (4 Bft) 95,74 %
16.05.2023 15:22 15,8 C 16,1 C 11,1 C 56 % 1021,2 hPa 0,0 l/m 0 min 0 min 265 W/m 25,7 km/h (4 Bft) 93,62 %
16.05.2023 15:24 15,6 C 15,6 C 11,1 C 56 % 1021,3 hPa 0,0 l/m 0 min 0 min 250 W/m 19,3 km/h (3 Bft) 95,65 %
16.05.2023 15:26 15,5 C 17,2 C 11,1 C 58 % 1021,2 hPa 0,0 l/m 2 min 0 min 511 W/m 22,5 km/h (4 Bft) 92,86 %
16.05.2023 15:28 15,5 C 18,9 C 11,1 C 58 % 1021,3 hPa 0,0 l/m 2 min 0 min 988 W/m 19,3 km/h (3 Bft) 94,00 %
16.05.2023 15:30 15,5 C 16,7 C 11,1 C 57 % 1021,3 hPa 0,0 l/m 2 min 0 min 449 W/m 29,0 km/h (5 Bft) 97,14 %
16.05.2023 15:32 15,4 C 16,1 C 11,1 C 57 % 1021,3 hPa 0,0 l/m 0 min 0 min 300 W/m 25,7 km/h (4 Bft) 95,74 %
16.05.2023 15:34 15,3 C 16,1 C 11,1 C 58 % 1021,3 hPa 0,0 l/m 0 min 0 min 288 W/m 35,4 km/h (5 Bft) 95,74 %
16.05.2023 15:36 15,3 C 15,6 C 11,1 C 58 % 1021,2 hPa 0,0 l/m 0 min 0 min 271 W/m 25,7 km/h (4 Bft) 96,23 %
16.05.2023 15:38 15,3 C 16,7 C 11,1 C 58 % 1021,3 hPa 0,0 l/m 0 min 0 min 297 W/m 12,9 km/h (3 Bft) 93,48 %
16.05.2023 15:40 15,4 C 17,2 C 11,1 C 59 % 1021,3 hPa 0,0 l/m 0 min 0 min 301 W/m 16,1 km/h (3 Bft) 95,74 %
16.05.2023 15:42 15,5 C 17,8 C 11,7 C 60 % 1021,2 hPa 0,0 l/m 0 min 0 min 292 W/m 9,7 km/h (2 Bft) 95,74 %
16.05.2023 15:44 15,6 C 17,2 C 11,1 C 60 % 1021,2 hPa 0,0 l/m 0 min 0 min 245 W/m 12,9 km/h (3 Bft) 95,74 %
16.05.2023 15:46 15,6 C 16,7 C 11,1 C 59 % 1021,2 hPa 0,0 l/m 0 min 0 min 235 W/m 16,1 km/h (3 Bft) 93,62 %
16.05.2023 15:48 15,6 C 16,7 C 11,1 C 60 % 1021,2 hPa 0,0 l/m 0 min 0 min 248 W/m 19,3 km/h (3 Bft) 97,87 %
16.05.2023 15:50 15,6 C 16,1 C 11,1 C 59 % 1021,2 hPa 0,0 l/m 0 min 0 min 261 W/m 16,1 km/h (3 Bft) 97,83 %
16.05.2023 15:52 15,5 C 16,1 C 11,1 C 60 % 1021,2 hPa 0,0 l/m 0 min 0 min 258 W/m 25,7 km/h (4 Bft) 95,74 %
16.05.2023 15:54 15,4 C 15,6 C 11,1 C 59 % 1021,2 hPa 0,0 l/m 0 min 0 min 262 W/m 32,2 km/h (5 Bft) 97,87 %
16.05.2023 15:56 15,3 C 15,6 C 11,1 C 59 % 1021,2 hPa 0,0 l/m 0 min 0 min 264 W/m 22,5 km/h (4 Bft) 97,87 %
16.05.2023 15:58 15,3 C 15,6 C 11,1 C 59 % 1021,2 hPa 0,0 l/m 0 min 0 min 270 W/m 25,7 km/h (4 Bft) 97,87 %
16.05.2023 16:00 15,2 C 15,6 C 11,1 C 60 % 1021,2 hPa 0,0 l/m 0 min 0 min 287 W/m 19,3 km/h (3 Bft) 93,62 %
16.05.2023 16:02 15,2 C 15,6 C 11,1 C 60 % 1021,3 hPa 0,0 l/m 0 min 0 min 298 W/m 19,3 km/h (3 Bft) 97,83 %
16.05.2023 16:04 15,3 C 16,1 C 11,1 C 61 % 1021,3 hPa 0,0 l/m 0 min 0 min 304 W/m 12,9 km/h (3 Bft) 100,00 %
16.05.2023 16:06 15,3 C 16,1 C 11,1 C 60 % 1021,3 hPa 0,0 l/m 0 min 0 min 320 W/m 16,1 km/h (3 Bft) 100,00 %
16.05.2023 16:08 15,3 C 16,1 C 11,1 C 60 % 1021,3 hPa 0,0 l/m 0 min 0 min 330 W/m 22,5 km/h (4 Bft) 97,14 %
16.05.2023 16:10 15,3 C 16,1 C 11,1 C 59 % 1021,3 hPa 0,0 l/m 0 min 0 min 313 W/m 19,3 km/h (3 Bft) 97,87 %
16.05.2023 16:12 15,3 C 16,1 C 11,1 C 61 % 1021,3 hPa 0,0 l/m 0 min 0 min 292 W/m 16,1 km/h (3 Bft) 100,00 %
16.05.2023 16:14 15,3 C 16,1 C 11,1 C 60 % 1021,3 hPa 0,0 l/m 0 min 0 min 263 W/m 19,3 km/h (3 Bft) 100,00 %
16.05.2023 16:16 15,3 C 15,6 C 11,1 C 60 % 1021,4 hPa 0,0 l/m 0 min 0 min 258 W/m 12,9 km/h (3 Bft) 100,00 %
16.05.2023 16:18 15,4 C 15,6 C 11,1 C 60 % 1021,4 hPa 0,0 l/m 0 min 0 min 267 W/m 6,4 km/h (2 Bft) 97,87 %
16.05.2023 16:20 15,4 C 16,1 C 11,7 C 60 % 1021,4 hPa 0,0 l/m 0 min 0 min 282 W/m 25,7 km/h (4 Bft) 100,00 %
16.05.2023 16:22 15,4 C 16,1 C 11,7 C 60 % 1021,4 hPa 0,0 l/m 0 min 0 min 286 W/m 22,5 km/h (4 Bft) 100,00 %
16.05.2023 16:24 15,4 C 16,1 C 11,1 C 58 % 1021,5 hPa 0,0 l/m 0 min 0 min 284 W/m 25,7 km/h (4 Bft) 100,00 %
16.05.2023 16:26 15,3 C 16,1 C 11,1 C 58 % 1021,5 hPa 0,0 l/m 0 min 0 min 288 W/m 22,5 km/h (4 Bft) 100,00 %
16.05.2023 16:28 15,3 C 15,6 C 11,1 C 57 % 1021,5 hPa 0,0 l/m 0 min 0 min 235 W/m 25,7 km/h (4 Bft) 97,83 %
16.05.2023 16:30 15,3 C 15,6 C 11,1 C 57 % 1021,5 hPa 0,0 l/m 0 min 0 min 206 W/m 12,9 km/h (3 Bft) 97,87 %
16.05.2023 16:32 15,2 C 15,6 C 11,1 C 58 % 1021,5 hPa 0,0 l/m 0 min 0 min 195 W/m 12,9 km/h (3 Bft) 100,00 %
16.05.2023 16:34 15,2 C 15,6 C 11,1 C 58 % 1021,4 hPa 0,0 l/m 0 min 0 min 191 W/m 19,3 km/h (3 Bft) 97,87 %
16.05.2023 16:36 15,2 C 15,0 C 10,6 C 57 % 1021,5 hPa 0,0 l/m 0 min 0 min 197 W/m 19,3 km/h (3 Bft) 100,00 %
16.05.2023 16:38 15,1 C 15,0 C 10,6 C 58 % 1021,5 hPa 0,0 l/m 0 min 0 min 199 W/m 22,5 km/h (4 Bft) 100,00 %
16.05.2023 16:40 15,1 C 15,0 C 10,6 C 58 % 1021,5 hPa 0,0 l/m 0 min 0 min 196 W/m 16,1 km/h (3 Bft) 100,00 %
16.05.2023 16:42 15,0 C 15,0 C 10,6 C 57 % 1021,4 hPa 0,0 l/m 0 min 0 min 194 W/m 22,5 km/h (4 Bft) 100,00 %
16.05.2023 16:44 14,9 C 15,0 C 10,6 C 58 % 1021,4 hPa 0,0 l/m 0 min 0 min 191 W/m 22,5 km/h (4 Bft) 95,74 %
16.05.2023 16:46 14,9 C 15,0 C 10,6 C 59 % 1021,4 hPa 0,0 l/m 0 min 0 min 193 W/m 16,1 km/h (3 Bft) 97,87 %
16.05.2023 16:48 14,8 C 15,0 C 10,6 C 59 % 1021,5 hPa 0,0 l/m 0 min 0 min 200 W/m 25,7 km/h (4 Bft) 97,87 %
16.05.2023 16:50 14,8 C 15,0 C 10,6 C 60 % 1021,5 hPa 0,0 l/m 0 min 0 min 207 W/m 19,3 km/h (3 Bft) 100,00 %
16.05.2023 16:52 14,8 C 15,0 C 11,1 C 60 % 1021,6 hPa 0,0 l/m 0 min 0 min 213 W/m 29,0 km/h (5 Bft) 100,00 %
16.05.2023 16:54 14,8 C 15,0 C 10,6 C 60 % 1021,6 hPa 0,0 l/m 0 min 0 min 221 W/m 29,0 km/h (5 Bft) 100,00 %
16.05.2023 16:56 14,8 C 15,0 C 10,6 C 60 % 1021,6 hPa 0,0 l/m 0 min 0 min 229 W/m 25,7 km/h (4 Bft) 100,00 %
16.05.2023 16:58 14,7 C 15,0 C 10,6 C 59 % 1021,6 hPa 0,0 l/m 0 min 0 min 236 W/m 25,7 km/h (4 Bft) 100,00 %
16.05.2023 17:00 14,7 C 15,0 C 10,6 C 59 % 1021,6 hPa 0,0 l/m 0 min 0 min 253 W/m 16,1 km/h (3 Bft) 100,00 %
16.05.2023 17:02 14,7 C 15,0 C 10,6 C 60 % 1021,6 hPa 0,0 l/m 0 min 0 min 260 W/m 16,1 km/h (3 Bft) 97,87 %
16.05.2023 17:04 14,7 C 15,0 C 10,6 C 59 % 1021,6 hPa 0,0 l/m 0 min 0 min 260 W/m 22,5 km/h (4 Bft) 100,00 %
16.05.2023 17:06 14,7 C 15,0 C 10,6 C 59 % 1021,6 hPa 0,0 l/m 0 min 0 min 249 W/m 29,0 km/h (5 Bft) 100,00 %
16.05.2023 17:08 14,7 C 15,0 C 10,6 C 60 % 1021,6 hPa 0,0 l/m 0 min 0 min 234 W/m 9,7 km/h (2 Bft) 97,14 %
16.05.2023 17:10 14,7 C 15,0 C 10,6 C 60 % 1021,6 hPa 0,0 l/m 0 min 0 min 218 W/m 22,5 km/h (4 Bft) 100,00 %
16.05.2023 17:12 14,7 C 15,0 C 10,6 C 60 % 1021,6 hPa 0,0 l/m 0 min 0 min 198 W/m 16,1 km/h (3 Bft) 100,00 %
16.05.2023 17:14 14,7 C 15,0 C 10,6 C 60 % 1021,7 hPa 0,0 l/m 0 min 0 min 173 W/m 19,3 km/h (3 Bft) 97,87 %
16.05.2023 17:16 14,7 C 15,0 C 10,6 C 60 % 1021,7 hPa 0,0 l/m 0 min 0 min 153 W/m 22,5 km/h (4 Bft) 97,87 %
16.05.2023 17:18 14,6 C 15,0 C 10,6 C 61 % 1021,8 hPa 0,0 l/m 0 min 0 min 150 W/m 29,0 km/h (5 Bft) 97,83 %
16.05.2023 17:20 14,6 C 14,4 C 10,6 C 60 % 1021,8 hPa 0,0 l/m 0 min 0 min 156 W/m 22,5 km/h (4 Bft) 93,62 %
16.05.2023 17:22 14,6 C 14,4 C 10,6 C 61 % 1021,8 hPa 0,0 l/m 0 min 0 min 164 W/m 12,9 km/h (3 Bft) 97,87 %
16.05.2023 17:24 14,5 C 14,4 C 10,6 C 60 % 1021,8 hPa 0,0 l/m 0 min 0 min 167 W/m 25,7 km/h (4 Bft) 97,87 %
16.05.2023 17:26 14,4 C 14,4 C 10,6 C 61 % 1021,8 hPa 0,0 l/m 0 min 0 min 160 W/m 9,7 km/h (2 Bft) 97,87 %
16.05.2023 17:28 14,4 C 14,4 C 10,6 C 61 % 1021,8 hPa 0,0 l/m 0 min 0 min 150 W/m 12,9 km/h (3 Bft) 97,87 %
16.05.2023 17:30 14,4 C 14,4 C 10,6 C 61 % 1021,8 hPa 0,0 l/m 0 min 0 min 134 W/m 22,5 km/h (4 Bft) 95,65 %
16.05.2023 17:32 14,4 C 14,4 C 10,0 C 61 % 1021,8 hPa 0,0 l/m 0 min 0 min 117 W/m 19,3 km/h (3 Bft) 97,87 %
16.05.2023 17:34 14,4 C 14,4 C 10,0 C 62 % 1021,8 hPa 0,0 l/m 0 min 0 min 120 W/m 16,1 km/h (3 Bft) 97,87 %
16.05.2023 17:36 14,4 C 14,4 C 10,0 C 62 % 1021,8 hPa 0,0 l/m 0 min 0 min 136 W/m 25,7 km/h (4 Bft) 97,87 %
16.05.2023 17:38 14,3 C 14,4 C 10,0 C 62 % 1021,9 hPa 0,0 l/m 0 min 0 min 150 W/m 22,5 km/h (4 Bft) 97,87 %
16.05.2023 17:40 14,3 C 14,4 C 10,0 C 61 % 1022,0 hPa 0,0 l/m 0 min 0 min 164 W/m 22,5 km/h (4 Bft) 93,62 %
16.05.2023 17:42 14,3 C 14,4 C 10,0 C 61 % 1021,9 hPa 0,0 l/m 0 min 0 min 169 W/m 19,3 km/h (3 Bft) 95,74 %
16.05.2023 17:44 14,3 C 14,4 C 10,0 C 62 % 1021,9 hPa 0,0 l/m 0 min 0 min 183 W/m 16,1 km/h (3 Bft) 95,65 %
16.05.2023 17:46 14,3 C 14,4 C 10,0 C 62 % 1021,9 hPa 0,0 l/m 0 min 0 min 186 W/m 19,3 km/h (3 Bft) 95,74 %
16.05.2023 17:48 14,3 C 14,4 C 10,6 C 62 % 1022,0 hPa 0,0 l/m 0 min 0 min 181 W/m 16,1 km/h (3 Bft) 97,87 %
16.05.2023 17:50 14,3 C 13,9 C 10,0 C 61 % 1021,9 hPa 0,0 l/m 0 min 0 min 183 W/m 29,0 km/h (5 Bft) 97,87 %
16.05.2023 17:52 14,3 C 13,9 C 10,0 C 61 % 1021,9 hPa 0,0 l/m 0 min 0 min 180 W/m 25,7 km/h (4 Bft) 95,74 %
16.05.2023 17:54 14,3 C 13,9 C 10,0 C 61 % 1021,9 hPa 0,0 l/m 0 min 0 min 172 W/m 25,7 km/h (4 Bft) 95,74 %
16.05.2023 17:56 14,3 C 13,9 C 10,0 C 61 % 1021,9 hPa 0,0 l/m 0 min 0 min 163 W/m 16,1 km/h (3 Bft) 97,83 %
16.05.2023 17:58 14,3 C 13,9 C 10,0 C 62 % 1021,9 hPa 0,0 l/m 0 min 0 min 155 W/m 22,5 km/h (4 Bft) 100,00 %
16.05.2023 18:00 14,3 C 13,9 C 10,0 C 63 % 1022,0 hPa 0,0 l/m 0 min 0 min 156 W/m 12,9 km/h (3 Bft) 97,87 %
16.05.2023 18:02 14,2 C 13,9 C 10,0 C 63 % 1021,9 hPa 0,0 l/m 0 min 0 min 172 W/m 16,1 km/h (3 Bft) 95,74 %
16.05.2023 18:04 14,2 C 13,9 C 10,0 C 63 % 1022,0 hPa 0,0 l/m 0 min 0 min 183 W/m 29,0 km/h (5 Bft) 91,84 %
16.05.2023 18:07 14,1 C 13,9 C 10,0 C 63 % 1022,1 hPa 0,0 l/m 0 min 0 min 179 W/m 19,3 km/h (3 Bft) 91,84 %
16.05.2023 18:08 14,1 C 13,9 C 10,0 C 64 % 1022,1 hPa 0,0 l/m 0 min 0 min 181 W/m 19,3 km/h (3 Bft) 95,70 %
16.05.2023 18:12 14,1 C 13,9 C 10,0 C 64 % 1022,2 hPa 0,0 l/m 0 min 0 min 199 W/m 29,0 km/h (5 Bft) 94,83 %
16.05.2023 18:14 14,1 C 13,9 C 10,0 C 64 % 1022,1 hPa 0,0 l/m 0 min 0 min 206 W/m 25,7 km/h (4 Bft) 93,62 %
16.05.2023 18:16 14,0 C 13,9 C 10,0 C 65 % 1022,1 hPa 0,0 l/m 2 min 0 min 216 W/m 12,9 km/h (3 Bft) 95,74 %
16.05.2023 18:18 14,0 C 14,4 C 10,0 C 64 % 1022,2 hPa 0,0 l/m 2 min 0 min 230 W/m 12,9 km/h (3 Bft) 95,74 %
16.05.2023 18:20 14,0 C 14,4 C 10,0 C 64 % 1022,1 hPa 0,0 l/m 2 min 0 min 231 W/m 19,3 km/h (3 Bft) 95,65 %
16.05.2023 18:22 14,0 C 15,0 C 10,0 C 64 % 1022,2 hPa 0,0 l/m 2 min 0 min 282 W/m 19,3 km/h (3 Bft) 93,62 %
16.05.2023 18:24 14,0 C 15,6 C 10,0 C 64 % 1022,2 hPa 0,0 l/m 2 min 0 min 237 W/m 25,7 km/h (4 Bft) 95,74 %
16.05.2023 18:26 14,0 C 15,0 C 10,6 C 63 % 1022,2 hPa 0,0 l/m 2 min 0 min 210 W/m 19,3 km/h (3 Bft) 93,62 %
16.05.2023 18:28 14,0 C 14,4 C 10,0 C 63 % 1022,2 hPa 0,0 l/m 0 min 0 min 196 W/m 19,3 km/h (3 Bft) 95,74 %
16.05.2023 18:30 14,0 C 14,4 C 10,0 C 64 % 1022,2 hPa 0,0 l/m 0 min 0 min 190 W/m 19,3 km/h (3 Bft) 95,74 %
16.05.2023 18:32 14,1 C 14,4 C 10,0 C 64 % 1022,1 hPa 0,0 l/m 0 min 0 min 181 W/m 12,9 km/h (3 Bft) 97,87 %
16.05.2023 18:34 14,1 C 14,4 C 10,0 C 64 % 1022,2 hPa 0,0 l/m 0 min 0 min 165 W/m 9,7 km/h (2 Bft) 97,83 %
16.05.2023 18:36 14,1 C 14,4 C 10,0 C 64 % 1022,2 hPa 0,0 l/m 0 min 0 min 167 W/m 9,7 km/h (2 Bft) 97,87 %
16.05.2023 18:38 14,1 C 14,4 C 10,0 C 64 % 1022,1 hPa 0,0 l/m 0 min 0 min 165 W/m 12,9 km/h (3 Bft) 100,00 %
16.05.2023 18:40 14,1 C 14,4 C 10,0 C 64 % 1022,2 hPa 0,0 l/m 0 min 0 min 159 W/m 16,1 km/h (3 Bft) 95,74 %
16.05.2023 18:42 14,2 C 14,4 C 10,0 C 65 % 1022,2 hPa 0,0 l/m 0 min 0 min 155 W/m 9,7 km/h (2 Bft) 97,87 %
16.05.2023 18:44 14,2 C 14,4 C 10,0 C 65 % 1022,2 hPa 0,0 l/m 0 min 0 min 149 W/m 16,1 km/h (3 Bft) 97,87 %
16.05.2023 18:46 14,3 C 14,4 C 10,0 C 65 % 1022,2 hPa 0,0 l/m 0 min 0 min 144 W/m 19,3 km/h (3 Bft) 97,83 %
16.05.2023 18:48 14,3 C 13,9 C 10,0 C 65 % 1022,2 hPa 0,0 l/m 0 min 0 min 141 W/m 32,2 km/h (5 Bft) 100,00 %
16.05.2023 18:50 14,2 C 13,9 C 10,0 C 64 % 1022,3 hPa 0,0 l/m 0 min 0 min 137 W/m 19,3 km/h (3 Bft) 95,74 %
16.05.2023 18:52 14,1 C 13,9 C 10,0 C 64 % 1022,3 hPa 0,0 l/m 0 min 0 min 125 W/m 22,5 km/h (4 Bft) 100,00 %
16.05.2023 18:54 14,1 C 13,9 C 9,4 C 64 % 1022,4 hPa 0,0 l/m 0 min 0 min 112 W/m 16,1 km/h (3 Bft) 100,00 %
16.05.2023 18:56 14,1 C 13,9 C 9,4 C 65 % 1022,4 hPa 0,0 l/m 0 min 0 min 104 W/m 22,5 km/h (4 Bft) 100,00 %
16.05.2023 18:58 13,9 C 13,3 C 9,4 C 65 % 1022,4 hPa 0,0 l/m 0 min 0 min 100 W/m 19,3 km/h (3 Bft) 97,87 %
16.05.2023 19:00 13,9 C 13,3 C 9,4 C 64 % 1022,3 hPa 0,0 l/m 0 min 0 min 98 W/m 22,5 km/h (4 Bft) 100,00 %
16.05.2023 19:02 13,8 C 13,3 C 9,4 C 65 % 1022,3 hPa 0,0 l/m 0 min 0 min 93 W/m 16,1 km/h (3 Bft) 95,74 %
16.05.2023 19:04 13,8 C 13,3 C 9,4 C 65 % 1022,4 hPa 0,0 l/m 0 min 0 min 89 W/m 25,7 km/h (4 Bft) 100,00 %
16.05.2023 19:06 13,7 C 13,3 C 9,4 C 65 % 1022,4 hPa 0,0 l/m 0 min 0 min 87 W/m 29,0 km/h (5 Bft) 97,87 %
16.05.2023 19:08 13,7 C 13,3 C 9,4 C 66 % 1022,4 hPa 0,0 l/m 0 min 0 min 90 W/m 12,9 km/h (3 Bft) 97,87 %
16.05.2023 19:10 13,6 C 13,3 C 9,4 C 66 % 1022,5 hPa 0,0 l/m 0 min 0 min 90 W/m 16,1 km/h (3 Bft) 97,87 %
16.05.2023 19:12 13,6 C 13,3 C 9,4 C 66 % 1022,4 hPa 0,0 l/m 0 min 0 min 85 W/m 16,1 km/h (3 Bft) 97,83 %
16.05.2023 19:14 13,6 C 13,3 C 9,4 C 66 % 1022,5 hPa 0,0 l/m 0 min 0 min 76 W/m 12,9 km/h (3 Bft) 97,87 %
16.05.2023 19:16 13,6 C 13,3 C 9,4 C 66 % 1022,5 hPa 0,0 l/m 0 min 0 min 65 W/m 9,7 km/h (2 Bft) 95,74 %
16.05.2023 19:18 13,6 C 13,3 C 9,4 C 66 % 1022,5 hPa 0,0 l/m 0 min 0 min 55 W/m 12,9 km/h (3 Bft) 93,62 %
16.05.2023 19:20 13,5 C 13,3 C 8,9 C 66 % 1022,5 hPa 0,0 l/m 0 min 0 min 49 W/m 25,7 km/h (4 Bft) 97,87 %
16.05.2023 19:22 13,5 C 12,8 C 8,9 C 66 % 1022,5 hPa 0,0 l/m 0 min 0 min 44 W/m 22,5 km/h (4 Bft) 97,87 %
16.05.2023 19:24 13,4 C 12,8 C 8,9 C 66 % 1022,6 hPa 0,0 l/m 0 min 0 min 40 W/m 12,9 km/h (3 Bft) 97,83 %
16.05.2023 19:26 13,3 C 12,8 C 8,9 C 66 % 1022,6 hPa 0,0 l/m 0 min 0 min 38 W/m 22,5 km/h (4 Bft) 97,87 %
16.05.2023 19:28 13,3 C 12,8 C 8,9 C 65 % 1022,7 hPa 0,0 l/m 0 min 0 min 34 W/m 19,3 km/h (3 Bft) 97,87 %
16.05.2023 19:30 13,2 C 12,8 C 8,9 C 66 % 1022,7 hPa 0,0 l/m 0 min 0 min 32 W/m 19,3 km/h (3 Bft) 95,74 %
16.05.2023 19:32 13,2 C 12,8 C 8,9 C 66 % 1022,6 hPa 0,0 l/m 0 min 0 min 29 W/m 9,7 km/h (2 Bft) 97,87 %
16.05.2023 19:34 13,1 C 12,2 C 8,9 C 66 % 1022,6 hPa 0,0 l/m 0 min 0 min 28 W/m 16,1 km/h (3 Bft) 95,74 %
16.05.2023 19:36 13,1 C 12,2 C 8,9 C 66 % 1022,7 hPa 0,0 l/m 0 min 0 min 26 W/m 19,3 km/h (3 Bft) 97,87 %
16.05.2023 19:38 13,1 C 12,2 C 8,9 C 67 % 1022,7 hPa 0,0 l/m 0 min 0 min 24 W/m 25,7 km/h (4 Bft) 97,83 %
16.05.2023 19:40 13,0 C 12,2 C 8,9 C 66 % 1022,7 hPa 0,0 l/m 0 min 0 min 23 W/m 19,3 km/h (3 Bft) 97,87 %
16.05.2023 19:42 12,9 C 12,2 C 8,3 C 67 % 1022,7 hPa 0,0 l/m 0 min 0 min 25 W/m 22,5 km/h (4 Bft) 97,87 %
16.05.2023 19:44 12,9 C 12,2 C 8,3 C 67 % 1022,7 hPa 0,0 l/m 0 min 0 min 25 W/m 9,7 km/h (2 Bft) 100,00 %
16.05.2023 19:46 12,9 C 12,2 C 8,3 C 67 % 1022,7 hPa 0,0 l/m 0 min 0 min 25 W/m 19,3 km/h (3 Bft) 100,00 %
16.05.2023 19:48 12,9 C 12,2 C 8,3 C 68 % 1022,7 hPa 0,0 l/m 0 min 0 min 24 W/m 12,9 km/h (3 Bft) 100,00 %
16.05.2023 19:50 12,9 C 12,2 C 8,3 C 68 % 1022,7 hPa 0,0 l/m 0 min 0 min 20 W/m 9,7 km/h (2 Bft) 100,00 %
16.05.2023 19:52 12,9 C 12,2 C 8,3 C 68 % 1022,7 hPa 0,0 l/m 0 min 0 min 19 W/m 9,7 km/h (2 Bft) 97,87 %
16.05.2023 19:54 12,8 C 12,2 C 8,3 C 68 % 1022,8 hPa 0,0 l/m 0 min 0 min 20 W/m 12,9 km/h (3 Bft) 100,00 %
16.05.2023 19:56 12,8 C 12,2 C 8,3 C 68 % 1022,8 hPa 0,0 l/m 0 min 0 min 22 W/m 12,9 km/h (3 Bft) 100,00 %
16.05.2023 19:58 12,8 C 12,2 C 8,3 C 68 % 1022,8 hPa 0,0 l/m 0 min 0 min 26 W/m 16,1 km/h (3 Bft) 100,00 %
16.05.2023 20:00 12,8 C 12,2 C 8,3 C 69 % 1022,8 hPa 0,0 l/m 0 min 0 min 26 W/m 6,4 km/h (2 Bft) 100,00 %
16.05.2023 20:02 12,8 C 12,2 C 8,3 C 69 % 1022,8 hPa 0,0 l/m 0 min 0 min 26 W/m 12,9 km/h (3 Bft) 100,00 %
16.05.2023 20:04 12,8 C 12,2 C 8,3 C 69 % 1022,8 hPa 0,0 l/m 0 min 0 min 23 W/m 12,9 km/h (3 Bft) 100,00 %
16.05.2023 20:06 12,8 C 12,2 C 8,3 C 69 % 1022,8 hPa 0,0 l/m 0 min 0 min 20 W/m 12,9 km/h (3 Bft) 100,00 %
16.05.2023 20:08 12,8 C 12,2 C 8,3 C 69 % 1022,8 hPa 0,0 l/m 0 min 0 min 18 W/m 9,7 km/h (2 Bft) 100,00 %
16.05.2023 20:10 12,8 C 12,2 C 8,3 C 69 % 1022,8 hPa 0,0 l/m 0 min 0 min 17 W/m 9,7 km/h (2 Bft) 100,00 %
16.05.2023 20:12 12,8 C 12,2 C 8,3 C 70 % 1022,9 hPa 0,0 l/m 0 min 0 min 14 W/m 9,7 km/h (2 Bft) 95,65 %
16.05.2023 20:14 12,7 C 12,2 C 8,3 C 70 % 1022,8 hPa 0,0 l/m 0 min 0 min 13 W/m 9,7 km/h (2 Bft) 100,00 %
16.05.2023 20:16 12,8 C 12,2 C 8,3 C 70 % 1022,8 hPa 0,0 l/m 0 min 0 min 12 W/m 12,9 km/h (3 Bft) 97,87 %
16.05.2023 20:18 12,7 C 12,2 C 8,3 C 70 % 1022,8 hPa 0,0 l/m 0 min 0 min 12 W/m 16,1 km/h (3 Bft) 100,00 %
16.05.2023 20:20 12,7 C 12,2 C 8,3 C 70 % 1022,9 hPa 0,0 l/m 0 min 0 min 11 W/m 6,4 km/h (2 Bft) 100,00 %
16.05.2023 20:22 12,7 C 11,7 C 8,3 C 70 % 1022,9 hPa 0,0 l/m 0 min 0 min 11 W/m 12,9 km/h (3 Bft) 100,00 %
16.05.2023 20:24 12,7 C 11,7 C 8,3 C 70 % 1022,9 hPa 0,0 l/m 0 min 0 min 11 W/m 12,9 km/h (3 Bft) 97,87 %
16.05.2023 20:26 12,7 C 11,7 C 8,3 C 70 % 1022,9 hPa 0,0 l/m 0 min 0 min 11 W/m 9,7 km/h (2 Bft) 97,87 %
16.05.2023 20:28 12,6 C 11,7 C 8,3 C 71 % 1022,9 hPa 0,0 l/m 0 min 0 min 9 W/m 3,2 km/h (1 Bft) 100,00 %
16.05.2023 20:30 12,6 C 11,7 C 8,3 C 71 % 1022,9 hPa 0,0 l/m 0 min 0 min 9 W/m 12,9 km/h (3 Bft) 97,87 %
16.05.2023 20:32 12,6 C 11,7 C 8,3 C 71 % 1022,9 hPa 0,0 l/m 0 min 0 min 9 W/m 6,4 km/h (2 Bft) 97,87 %
16.05.2023 20:34 12,6 C 11,7 C 8,3 C 71 % 1022,9 hPa 0,0 l/m 0 min 0 min 8 W/m 6,4 km/h (2 Bft) 97,87 %
16.05.2023 20:36 12,6 C 11,7 C 8,3 C 71 % 1023,0 hPa 0,0 l/m 0 min 0 min 7 W/m 3,2 km/h (1 Bft) 97,87 %
16.05.2023 20:38 12,6 C 11,7 C 8,3 C 72 % 1022,9 hPa 0,0 l/m 0 min 0 min 7 W/m 6,4 km/h (2 Bft) 93,62 %
16.05.2023 20:40 12,6 C 11,7 C 8,3 C 71 % 1022,9 hPa 0,0 l/m 0 min 0 min 7 W/m 3,2 km/h (1 Bft) 97,83 %
16.05.2023 20:42 12,6 C 11,7 C 8,3 C 72 % 1022,9 hPa 0,0 l/m 0 min 0 min 7 W/m 3,2 km/h (1 Bft) 97,87 %
16.05.2023 20:44 12,6 C 11,7 C 8,3 C 72 % 1022,9 hPa 0,0 l/m 0 min 0 min 7 W/m 3,2 km/h (1 Bft) 95,74 %
16.05.2023 20:46 12,6 C 11,7 C 8,3 C 72 % 1022,9 hPa 0,0 l/m 0 min 0 min 6 W/m 3,2 km/h (1 Bft) 97,87 %
16.05.2023 20:48 12,6 C 11,7 C 8,3 C 72 % 1022,9 hPa 0,0 l/m 0 min 0 min 5 W/m 3,2 km/h (1 Bft) 97,87 %
16.05.2023 20:50 12,6 C 11,7 C 8,3 C 72 % 1022,9 hPa 0,0 l/m 0 min 0 min 5 W/m 9,7 km/h (2 Bft) 97,87 %
16.05.2023 20:52 12,5 C 11,7 C 8,3 C 72 % 1022,9 hPa 0,0 l/m 0 min 0 min 5 W/m 3,2 km/h (1 Bft) 95,65 %
16.05.2023 20:54 12,5 C 11,7 C 7,8 C 72 % 1022,9 hPa 0,0 l/m 0 min 0 min 5 W/m 9,7 km/h (2 Bft) 95,74 %
16.05.2023 20:56 12,5 C 11,7 C 7,8 C 72 % 1023,0 hPa 0,0 l/m 0 min 0 min 5 W/m 12,9 km/h (3 Bft) 93,62 %
16.05.2023 20:58 12,4 C 11,7 C 7,8 C 72 % 1023,0 hPa 0,0 l/m 0 min 0 min 5 W/m 6,4 km/h (2 Bft) 95,74 %
16.05.2023 21:00 12,4 C 11,7 C 7,8 C 73 % 1023,0 hPa 0,0 l/m 0 min 0 min 3 W/m 3,2 km/h (1 Bft) 95,74 %
16.05.2023 21:02 12,4 C 11,7 C 7,8 C 73 % 1023,0 hPa 0,0 l/m 0 min 0 min 0 W/m 3,2 km/h (1 Bft) 91,49 %
16.05.2023 21:04 12,4 C 11,7 C 7,8 C 73 % 1023,0 hPa 0,0 l/m 0 min 0 min 0 W/m 6,4 km/h (2 Bft) 93,75 %
16.05.2023 21:06 12,4 C 11,7 C 7,8 C 73 % 1023,0 hPa 0,0 l/m 0 min 0 min 0 W/m 3,2 km/h (1 Bft) 93,62 %
16.05.2023 21:08 12,4 C 11,7 C 7,8 C 73 % 1023,0 hPa 0,0 l/m 0 min 0 min 0 W/m 6,4 km/h (2 Bft) 93,62 %
16.05.2023 21:10 12,4 C 11,7 C 7,8 C 73 % 1023,0 hPa 0,0 l/m 0 min 0 min 0 W/m 3,2 km/h (1 Bft) 95,74 %
16.05.2023 21:12 12,4 C 11,7 C 7,8 C 73 % 1023,0 hPa 0,0 l/m 0 min 0 min 0 W/m 3,2 km/h (1 Bft) 89,36 %
16.05.2023 21:14 12,4 C 11,7 C 7,8 C 73 % 1023,1 hPa 0,0 l/m 0 min 0 min 0 W/m 9,7 km/h (2 Bft) 93,62 %
16.05.2023 21:16 12,4 C 11,7 C 7,8 C 73 % 1023,1 hPa 0,0 l/m 0 min 0 min 0 W/m 3,2 km/h (1 Bft) 93,48 %
16.05.2023 21:18 12,3 C 11,7 C 7,8 C 74 % 1023,1 hPa 0,0 l/m 0 min 0 min 0 W/m 6,4 km/h (2 Bft) 93,62 %
16.05.2023 21:20 12,3 C 11,7 C 7,8 C 74 % 1023,1 hPa 0,0 l/m 0 min 0 min 0 W/m 6,4 km/h (2 Bft) 95,74 %
16.05.2023 21:22 12,3 C 11,7 C 7,8 C 74 % 1023,2 hPa 0,0 l/m 0 min 0 min 0 W/m 3,2 km/h (1 Bft) 95,74 %
16.05.2023 21:24 12,3 C 11,7 C 7,8 C 74 % 1023,2 hPa 0,0 l/m 0 min 0 min 0 W/m 3,2 km/h (1 Bft) 95,74 %
16.05.2023 21:26 12,3 C 11,7 C 7,8 C 74 % 1023,2 hPa 0,0 l/m 0 min 0 min 0 W/m 3,2 km/h (1 Bft) 95,74 %
16.05.2023 21:28 12,3 C 11,7 C 7,8 C 74 % 1023,2 hPa 0,0 l/m 0 min 0 min 0 W/m 3,2 km/h (1 Bft) 97,83 %
16.05.2023 21:30 12,3 C 11,7 C 7,8 C 74 % 1023,2 hPa 0,0 l/m 0 min 0 min 0 W/m 6,4 km/h (2 Bft) 95,74 %
16.05.2023 21:32 12,3 C 11,7 C 7,8 C 74 % 1023,3 hPa 0,0 l/m 0 min 0 min 0 W/m 3,2 km/h (1 Bft) 97,87 %
16.05.2023 21:34 12,3 C 11,1 C 7,8 C 74 % 1023,3 hPa 0,0 l/m 0 min 0 min 0 W/m 3,2 km/h (1 Bft) 95,74 %
16.05.2023 21:36 12,3 C 11,1 C 7,8 C 74 % 1023,3 hPa 0,0 l/m 0 min 0 min 0 W/m 3,2 km/h (1 Bft) 100,00 %
16.05.2023 21:38 12,3 C 11,1 C 7,8 C 75 % 1023,3 hPa 0,0 l/m 0 min 0 min 0 W/m 6,4 km/h (2 Bft) 97,87 %
16.05.2023 21:40 12,2 C 11,1 C 7,8 C 75 % 1023,3 hPa 0,0 l/m 0 min 0 min 0 W/m 3,2 km/h (1 Bft) 97,83 %
16.05.2023 21:42 12,2 C 11,1 C 7,8 C 75 % 1023,3 hPa 0,0 l/m 0 min 0 min 0 W/m 3,2 km/h (1 Bft) 97,87 %
16.05.2023 21:44 12,2 C 11,1 C 7,8 C 75 % 1023,3 hPa 0,0 l/m 0 min 0 min 0 W/m 6,4 km/h (2 Bft) 97,87 %
16.05.2023 21:46 12,2 C 11,1 C 7,8 C 75 % 1023,3 hPa 0,0 l/m 0 min 0 min 0 W/m 0,0 km/h (0 Bft) 95,74 %
16.05.2023 21:48 12,2 C 11,1 C 7,8 C 75 % 1023,3 hPa 0,0 l/m 0 min 0 min 0 W/m 3,2 km/h (1 Bft) 95,74 %
16.05.2023 21:50 12,2 C 11,1 C 7,8 C 75 % 1023,4 hPa 0,0 l/m 0 min 0 min 0 W/m 3,2 km/h (1 Bft) 97,87 %
16.05.2023 21:52 12,2 C 11,1 C 7,8 C 76 % 1023,3 hPa 0,0 l/m 0 min 0 min 0 W/m 0,0 km/h (0 Bft) 100,00 %
16.05.2023 21:54 12,1 C 11,1 C 7,8 C 76 % 1023,4 hPa 0,0 l/m 0 min 0 min 0 W/m 3,2 km/h (1 Bft) 100,00 %
16.05.2023 21:56 12,1 C 11,1 C 7,8 C 76 % 1023,3 hPa 0,0 l/m 0 min 0 min 0 W/m 6,4 km/h (2 Bft) 100,00 %
16.05.2023 21:58 12,1 C 11,1 C 7,8 C 76 % 1023,3 hPa 0,0 l/m 0 min 0 min 0 W/m 3,2 km/h (1 Bft) 100,00 %
16.05.2023 22:00 12,1 C 11,1 C 7,8 C 76 % 1023,4 hPa 0,0 l/m 0 min 0 min 0 W/m 6,4 km/h (2 Bft) 100,00 %
16.05.2023 22:02 12,1 C 11,1 C 7,8 C 76 % 1023,4 hPa 0,0 l/m 0 min 0 min 0 W/m 3,2 km/h (1 Bft) 100,00 %
16.05.2023 22:04 12,1 C 11,1 C 7,8 C 76 % 1023,4 hPa 0,0 l/m 0 min 0 min 0 W/m 3,2 km/h (1 Bft) 97,87 %
16.05.2023 22:06 12,0 C 11,1 C 7,2 C 76 % 1023,4 hPa 0,0 l/m 0 min 0 min 0 W/m 3,2 km/h (1 Bft) 97,87 %
16.05.2023 22:08 12,0 C 11,1 C 7,2 C 76 % 1023,5 hPa 0,0 l/m 0 min 0 min 0 W/m 3,2 km/h (1 Bft) 100,00 %
16.05.2023 22:10 12,0 C 11,1 C 7,2 C 76 % 1023,5 hPa 0,0 l/m 0 min 0 min 0 W/m 3,2 km/h (1 Bft) 100,00 %
16.05.2023 22:12 12,0 C 11,1 C 7,2 C 76 % 1023,5 hPa 0,0 l/m 0 min 0 min 0 W/m 0,0 km/h (0 Bft) 100,00 %
16.05.2023 22:14 11,9 C 11,1 C 7,2 C 76 % 1023,5 hPa 0,0 l/m 0 min 0 min 0 W/m 3,2 km/h (1 Bft) 100,00 %
16.05.2023 22:16 11,9 C 11,1 C 7,2 C 77 % 1023,5 hPa 0,0 l/m 0 min 0 min 0 W/m 6,4 km/h (2 Bft) 100,00 %
16.05.2023 22:18 11,9 C 11,1 C 7,2 C 77 % 1023,6 hPa 0,0 l/m 0 min 0 min 0 W/m 6,4 km/h (2 Bft) 100,00 %
16.05.2023 22:20 11,9 C 11,1 C 7,2 C 77 % 1023,6 hPa 0,0 l/m 0 min 0 min 0 W/m 12,9 km/h (3 Bft) 97,87 %
16.05.2023 22:22 11,9 C 11,1 C 7,2 C 77 % 1023,6 hPa 0,0 l/m 0 min 0 min 0 W/m 9,7 km/h (2 Bft) 100,00 %
16.05.2023 22:24 11,8 C 11,1 C 7,2 C 77 % 1023,6 hPa 0,0 l/m 0 min 0 min 0 W/m 6,4 km/h (2 Bft) 100,00 %
16.05.2023 22:26 11,8 C 11,1 C 7,2 C 77 % 1023,6 hPa 0,0 l/m 0 min 0 min 0 W/m 12,9 km/h (3 Bft) 100,00 %
16.05.2023 22:28 11,8 C 11,1 C 7,2 C 77 % 1023,6 hPa 0,0 l/m 0 min 0 min 0 W/m 6,4 km/h (2 Bft) 100,00 %
16.05.2023 22:30 11,8 C 11,1 C 7,2 C 77 % 1023,6 hPa 0,0 l/m 0 min 0 min 0 W/m 6,4 km/h (2 Bft) 100,00 %
16.05.2023 22:32 11,8 C 11,1 C 7,2 C 77 % 1023,7 hPa 0,0 l/m 0 min 0 min 0 W/m 6,4 km/h (2 Bft) 100,00 %
16.05.2023 22:34 11,8 C 11,1 C 7,2 C 77 % 1023,7 hPa 0,0 l/m 0 min 0 min 0 W/m 12,9 km/h (3 Bft) 97,87 %
16.05.2023 22:36 11,7 C 11,1 C 7,2 C 77 % 1023,7 hPa 0,0 l/m 0 min 0 min 0 W/m 9,7 km/h (2 Bft) 95,74 %
16.05.2023 22:38 11,7 C 11,1 C 7,2 C 77 % 1023,7 hPa 0,0 l/m 0 min 0 min 0 W/m 12,9 km/h (3 Bft) 97,92 %
16.05.2023 22:40 11,7 C 11,1 C 7,2 C 77 % 1023,7 hPa 0,0 l/m 0 min 0 min 0 W/m 9,7 km/h (2 Bft) 97,87 %
16.05.2023 22:42 11,7 C 11,1 C 7,2 C 77 % 1023,8 hPa 0,0 l/m 0 min 0 min 0 W/m 22,5 km/h (4 Bft) 100,00 %
16.05.2023 22:44 11,7 C 10,6 C 7,2 C 76 % 1023,8 hPa 0,0 l/m 0 min 0 min 0 W/m 16,1 km/h (3 Bft) 97,87 %
16.05.2023 22:46 11,6 C 11,1 C 7,2 C 76 % 1023,7 hPa 0,0 l/m 0 min 0 min 0 W/m 3,2 km/h (1 Bft) 95,65 %
16.05.2023 22:48 11,6 C 10,6 C 7,2 C 77 % 1023,7 hPa 0,0 l/m 0 min 0 min 0 W/m 9,7 km/h (2 Bft) 97,87 %
16.05.2023 22:50 11,6 C 10,6 C 7,2 C 77 % 1023,8 hPa 0,0 l/m 0 min 0 min 0 W/m 9,7 km/h (2 Bft) 97,87 %
16.05.2023 22:52 11,6 C 11,1 C 7,2 C 77 % 1023,7 hPa 0,0 l/m 0 min 0 min 0 W/m 6,4 km/h (2 Bft) 97,87 %
16.05.2023 22:54 11,6 C 11,1 C 7,2 C 77 % 1023,7 hPa 0,0 l/m 0 min 0 min 0 W/m 9,7 km/h (2 Bft) 95,74 %
16.05.2023 22:56 11,6 C 11,1 C 7,2 C 77 % 1023,8 hPa 0,0 l/m 0 min 0 min 0 W/m 12,9 km/h (3 Bft) 95,74 %
16.05.2023 22:58 11,6 C 10,6 C 7,2 C 77 % 1023,8 hPa 0,0 l/m 0 min 0 min 0 W/m 12,9 km/h (3 Bft) 97,83 %
16.05.2023 23:00 11,6 C 10,6 C 7,2 C 77 % 1023,9 hPa 0,0 l/m 0 min 0 min 0 W/m 12,9 km/h (3 Bft) 97,87 %
16.05.2023 23:02 11,5 C 10,6 C 7,2 C 77 % 1023,8 hPa 0,0 l/m 0 min 0 min 0 W/m 22,5 km/h (4 Bft) 95,74 %
16.05.2023 23:04 11,5 C 10,6 C 7,2 C 77 % 1023,8 hPa 0,0 l/m 0 min 0 min 0 W/m 12,9 km/h (3 Bft) 97,87 %
16.05.2023 23:06 11,4 C 10,6 C 7,2 C 77 % 1023,8 hPa 0,0 l/m 0 min 0 min 0 W/m 16,1 km/h (3 Bft) 98,33 %
16.05.2023 23:08 11,4 C 10,6 C 7,2 C 77 % 1023,7 hPa 0,0 l/m 0 min 0 min 0 W/m 6,4 km/h (2 Bft) 94,29 %
16.05.2023 23:10 11,4 C 10,6 C 7,2 C 77 % 1023,7 hPa 0,0 l/m 0 min 0 min 0 W/m 6,4 km/h (2 Bft) 95,74 %
16.05.2023 23:12 11,3 C 10,6 C 6,7 C 77 % 1023,7 hPa 0,0 l/m 0 min 0 min 0 W/m 16,1 km/h (3 Bft) 95,65 %
16.05.2023 23:14 11,3 C 10,6 C 6,7 C 77 % 1023,8 hPa 0,0 l/m 0 min 0 min 0 W/m 16,1 km/h (3 Bft) 98,00 %
16.05.2023 23:16 11,3 C 10,6 C 6,7 C 78 % 1023,8 hPa 0,0 l/m 0 min 0 min 0 W/m 6,4 km/h (2 Bft) 95,74 %
16.05.2023 23:18 11,3 C 10,6 C 6,7 C 78 % 1023,8 hPa 0,0 l/m 0 min 0 min 0 W/m 6,4 km/h (2 Bft) 97,87 %
16.05.2023 23:20 11,2 C 10,6 C 6,7 C 78 % 1023,8 hPa 0,0 l/m 0 min 0 min 0 W/m 9,7 km/h (2 Bft) 97,87 %
16.05.2023 23:22 11,2 C 10,6 C 6,7 C 78 % 1023,8 hPa 0,0 l/m 0 min 0 min 0 W/m 6,4 km/h (2 Bft) 95,74 %
16.05.2023 23:24 11,2 C 10,0 C 6,7 C 78 % 1023,8 hPa 0,0 l/m 0 min 0 min 0 W/m 9,7 km/h (2 Bft) 97,87 %
16.05.2023 23:26 11,2 C 10,0 C 6,7 C 78 % 1023,7 hPa 0,0 l/m 0 min 0 min 0 W/m 9,7 km/h (2 Bft) 97,83 %
16.05.2023 23:28 11,1 C 10,0 C 6,7 C 78 % 1023,7 hPa 0,0 l/m 0 min 0 min 0 W/m 16,1 km/h (3 Bft) 97,87 %
16.05.2023 23:30 11,1 C 10,0 C 6,7 C 78 % 1023,7 hPa 0,0 l/m 0 min 0 min 0 W/m 3,2 km/h (1 Bft) 97,87 %
16.05.2023 23:32 11,1 C 10,0 C 6,7 C 79 % 1023,8 hPa 0,0 l/m 0 min 0 min 0 W/m 9,7 km/h (2 Bft) 97,87 %
16.05.2023 23:34 11,0 C 10,0 C 6,7 C 79 % 1023,8 hPa 0,0 l/m 0 min 0 min 0 W/m 9,7 km/h (2 Bft) 97,87 %
16.05.2023 23:36 11,0 C 10,0 C 6,7 C 79 % 1023,8 hPa 0,0 l/m 0 min 0 min 0 W/m 9,7 km/h (2 Bft) 97,87 %
16.05.2023 23:38 10,9 C 10,0 C 6,7 C 79 % 1023,8 hPa 0,0 l/m 0 min 0 min 0 W/m 6,4 km/h (2 Bft) 97,14 %
16.05.2023 23:40 10,9 C 10,0 C 6,1 C 79 % 1023,8 hPa 0,0 l/m 0 min 0 min 0 W/m 12,9 km/h (3 Bft) 97,83 %
16.05.2023 23:42 10,8 C 9,4 C 6,1 C 79 % 1023,8 hPa 0,0 l/m 0 min 0 min 0 W/m 9,7 km/h (2 Bft) 97,87 %
16.05.2023 23:44 10,8 C 9,4 C 6,1 C 79 % 1023,8 hPa 0,0 l/m 0 min 0 min 0 W/m 9,7 km/h (2 Bft) 97,87 %
16.05.2023 23:46 10,8 C 9,4 C 6,1 C 79 % 1023,8 hPa 0,0 l/m 0 min 0 min 0 W/m 6,4 km/h (2 Bft) 97,87 %
16.05.2023 23:48 10,7 C 9,4 C 6,1 C 80 % 1023,9 hPa 0,0 l/m 0 min 0 min 0 W/m 6,4 km/h (2 Bft) 96,30 %
16.05.2023 23:50 10,7 C 9,4 C 6,1 C 80 % 1023,9 hPa 0,0 l/m 0 min 0 min 0 W/m 3,2 km/h (1 Bft) 97,87 %
16.05.2023 23:52 10,7 C 9,4 C 6,1 C 80 % 1023,9 hPa 0,0 l/m 0 min 0 min 0 W/m 3,2 km/h (1 Bft) 97,92 %
16.05.2023 23:54 10,6 C 9,4 C 6,1 C 80 % 1023,9 hPa 0,0 l/m 0 min 0 min 0 W/m 12,9 km/h (3 Bft) 97,87 %
16.05.2023 23:56 10,6 C 9,4 C 6,1 C 80 % 1023,9 hPa 0,0 l/m 0 min 0 min 0 W/m 6,4 km/h (2 Bft) 100,00 %
16.05.2023 23:58 10,5 C 9,4 C 6,1 C 80 % 1023,9 hPa 0,0 l/m 0 min 0 min 0 W/m 12,9 km/h (3 Bft) 100,00 %
_ Min-Zeit 06:18 05:38 05:32 14:52 00:00 - - - - 21:46 02:34
Minimum _ 7,4 C 6,7 C 3,3 C 55 % 1016,7 hPa - - - - 0,0 km/h (0 Bft) 62,96 %
_ Max-Zeit 14:38 14:18 12:52 03:14 23:00 00:26 07:56 02:17 13:14 02:06 00:00
Maximum _ 16,1 C 23,9 C 15,0 C 97 % 1023,9 hPa 0,2 l/m 2 min 5 min 1130 W/m 48,3 km/h
W-SW (6 Bft)
100,00 %
Durchschnitt _ 11,7 C 12,1 C 7,7 C 79 % 1020,7 hPa #3,6 l/m #3:42 h #2:58 h 276 W/m 15,2 km/h (3 Bft) 97,37 %
© 2023 W. Hausmann